Time,TemperatureF,DewpointF,PressureIn,WindDirection,WindDirectionDegrees,WindSpeedMPH,WindSpeedGustMPH,Humidity,HourlyPrecipIn,Conditions,Clouds,dailyrainin,SoftwareType,DateUTC
2013-05-15 00:00:00,66.3,57.9,29.66,SSW,203,0.0,0.0,74,0.00,,,0.00,WUHU216DAVISVP2,2013-05-15 04:00:00,
2013-05-15 00:01:00,66.3,57.9,29.66,SSW,203,0.0,0.0,74,0.00,,,0.00,WUHU216DAVISVP2,2013-05-15 04:01:00,
2013-05-15 00:02:00,66.3,57.9,29.66,SSW,203,0.0,0.0,74,0.00,,,0.00,WUHU216DAVISVP2,2013-05-15 04:02:00,
2013-05-15 00:03:00,66.2,57.4,29.66,SSW,203,0.0,0.0,73,0.00,,,0.00,WUHU216DAVISVP2,2013-05-15 04:03:00,
2013-05-15 00:06:00,66.2,57.4,29.66,SSW,203,0.0,0.0,73,0.00,,,0.00,WUHU216DAVISVP2,2013-05-15 04:06:00,
2013-05-15 00:07:00,66.2,57.4,29.66,SSW,203,0.0,0.0,73,0.00,,,0.00,WUHU216DAVISVP2,2013-05-15 04:07:00,
2013-05-15 00:08:00,66.2,57.4,29.66,SSW,203,0.0,0.0,73,0.00,,,0.00,WUHU216DAVISVP2,2013-05-15 04:08:00,
2013-05-15 00:10:00,66.2,57.8,29.66,SSW,203,0.0,0.0,74,0.00,,,0.00,WUHU216DAVISVP2,2013-05-15 04:10:00,
2013-05-15 00:11:00,66.1,57.3,29.66,SSW,203,0.0,0.0,73,0.00,,,0.00,WUHU216DAVISVP2,2013-05-15 04:11:00,
2013-05-15 00:12:00,66.1,57.3,29.66,SSW,203,0.0,0.0,73,0.00,,,0.00,WUHU216DAVISVP2,2013-05-15 04:12:00,
2013-05-15 00:13:00,66.1,57.3,29.66,SSW,203,0.0,0.0,73,0.00,,,0.00,WUHU216DAVISVP2,2013-05-15 04:13:00,
2013-05-15 00:16:00,66.0,58.0,29.67,SSW,203,0.0,0.0,75,0.00,,,0.00,WUHU216DAVISVP2,2013-05-15 04:16:00,
2013-05-15 00:17:00,66.0,58.0,29.67,SSW,203,0.0,0.0,75,0.00,,,0.00,WUHU216DAVISVP2,2013-05-15 04:17:00,
2013-05-15 00:18:00,65.9,58.2,29.67,SSW,203,0.0,0.0,76,0.00,,,0.00,WUHU216DAVISVP2,2013-05-15 04:18:00,
2013-05-15 00:20:00,65.6,58.3,29.67,SSW,203,0.0,0.0,77,0.00,,,0.00,WUHU216DAVISVP2,2013-05-15 04:20:00,
2013-05-15 00:21:00,65.5,58.2,29.67,SSW,203,0.0,0.0,77,0.00,,,0.00,WUHU216DAVISVP2,2013-05-15 04:21:00,
2013-05-15 00:23:00,65.5,58.2,29.67,SSW,203,0.0,0.0,77,0.00,,,0.00,WUHU216DAVISVP2,2013-05-15 04:23:00,
2013-05-15 00:24:00,65.1,58.2,29.68,SSW,203,0.0,1.0,78,0.00,,,0.00,WUHU216DAVISVP2,2013-05-15 04:24:00,
2013-05-15 00:27:00,64.9,58.0,29.68,SSW,203,0.0,1.0,78,0.00,,,0.00,WUHU216DAVISVP2,2013-05-15 04:27:00,
2013-05-15 00:28:00,64.9,58.0,29.68,SSW,203,0.0,1.0,78,0.00,,,0.00,WUHU216DAVISVP2,2013-05-15 04:28:00,
2013-05-15 00:30:00,64.7,57.8,29.67,SSW,203,0.0,1.0,78,0.00,,,0.00,WUHU216DAVISVP2,2013-05-15 04:30:00,
2013-05-15 00:31:00,64.7,58.1,29.67,SSW,203,0.0,1.0,79,0.00,,,0.00,WUHU216DAVISVP2,2013-05-15 04:31:00,
2013-05-15 00:33:00,64.6,58.0,29.67,SSW,203,0.0,0.0,79,0.00,,,0.00,WUHU216DAVISVP2,2013-05-15 04:33:00,
2013-05-15 00:35:00,64.6,57.7,29.67,SSW,203,0.0,0.0,78,0.00,,,0.00,WUHU216DAVISVP2,2013-05-15 04:35:00,
2013-05-15 00:37:00,64.6,57.7,29.66,SSW,203,0.0,0.0,78,0.00,,,0.00,WUHU216DAVISVP2,2013-05-15 04:37:00,
2013-05-15 00:38:00,64.6,57.7,29.66,SSW,203,0.0,0.0,78,0.00,,,0.00,WUHU216DAVISVP2,2013-05-15 04:38:00,
2013-05-15 00:39:00,64.5,57.6,29.66,SSW,203,0.0,0.0,78,0.00,,,0.00,WUHU216DAVISVP2,2013-05-15 04:39:00,
2013-05-15 00:41:00,64.5,57.5,29.66,SSW,203,0.0,2.0,78,0.00,,,0.00,WUHU216DAVISVP2,2013-05-15 04:41:00,
2013-05-15 00:42:00,64.5,57.1,29.66,SSW,203,0.0,2.0,77,0.00,,,0.00,WUHU216DAVISVP2,2013-05-15 04:42:00,
2013-05-15 00:43:00,64.5,57.1,29.66,SSW,203,0.0,2.0,77,0.00,,,0.00,WUHU216DAVISVP2,2013-05-15 04:43:00,
2013-05-15 00:44:00,64.5,57.1,29.66,SSW,203,0.0,2.0,77,0.00,,,0.00,WUHU216DAVISVP2,2013-05-15 04:44:00,
2013-05-15 00:46:00,64.5,57.1,29.66,SSW,203,0.0,2.0,77,0.00,,,0.00,WUHU216DAVISVP2,2013-05-15 04:46:00,
2013-05-15 00:49:00,64.5,57.1,29.66,SSW,203,0.0,2.0,77,0.00,,,0.00,WUHU216DAVISVP2,2013-05-15 04:49:00,
2013-05-15 00:51:00,64.5,57.1,29.66,SSW,203,0.0,1.0,77,0.00,,,0.00,WUHU216DAVISVP2,2013-05-15 04:51:00,
2013-05-15 00:53:00,64.4,56.7,29.66,South,191,0.0,4.0,76,0.00,,,0.00,WUHU216DAVISVP2,2013-05-15 04:53:00,
2013-05-15 00:54:00,64.4,56.7,29.66,South,191,0.0,4.0,76,0.00,,,0.00,WUHU216DAVISVP2,2013-05-15 04:54:00,
2013-05-15 00:55:00,64.4,56.7,29.66,South,191,0.0,4.0,76,0.00,,,0.00,WUHU216DAVISVP2,2013-05-15 04:55:00,
2013-05-15 00:59:00,64.4,57.0,29.66,South,191,0.0,4.0,77,0.00,,,0.00,WUHU216DAVISVP2,2013-05-15 04:59:00,
2013-05-15 01:01:00,64.4,57.0,29.66,South,191,0.0,0.0,77,0.00,,,0.00,WUHU216DAVISVP2,2013-05-15 05:01:00,
2013-05-15 01:03:00,64.3,56.6,29.66,South,191,0.0,0.0,76,0.00,,,0.00,WUHU216DAVISVP2,2013-05-15 05:03:00,
2013-05-15 01:04:00,64.3,56.6,29.66,South,191,0.0,0.0,76,0.00,,,0.00,WUHU216DAVISVP2,2013-05-15 05:04:00,
2013-05-15 01:06:00,64.3,56.9,29.65,South,191,0.0,0.0,77,0.00,,,0.00,WUHU216DAVISVP2,2013-05-15 05:06:00,
2013-05-15 01:08:00,64.3,56.9,29.65,South,191,0.0,0.0,77,0.00,,,0.00,WUHU216DAVISVP2,2013-05-15 05:08:00,
2013-05-15 01:09:00,64.3,56.9,29.65,South,191,0.0,0.0,77,0.00,,,0.00,WUHU216DAVISVP2,2013-05-15 05:09:00,
2013-05-15 01:10:00,64.3,57.3,29.65,South,191,0.0,0.0,78,0.00,,,0.00,WUHU216DAVISVP2,2013-05-15 05:10:00,
2013-05-15 01:11:00,64.2,56.8,29.65,South,191,0.0,0.0,77,0.00,,,0.00,WUHU216DAVISVP2,2013-05-15 05:11:00,
2013-05-15 01:13:00,64.1,56.7,29.65,South,191,0.0,0.0,77,0.00,,,0.00,WUHU216DAVISVP2,2013-05-15 05:13:00,
2013-05-15 01:14:00,64.1,56.7,29.65,South,191,0.0,0.0,77,0.00,,,0.00,WUHU216DAVISVP2,2013-05-15 05:14:00,
2013-05-15 01:15:00,64.1,56.7,29.64,South,191,0.0,0.0,77,0.00,,,0.00,WUHU216DAVISVP2,2013-05-15 05:15:00,
2013-05-15 01:16:00,64.1,56.7,29.64,South,191,0.0,0.0,77,0.00,,,0.00,WUHU216DAVISVP2,2013-05-15 05:16:00,
2013-05-15 01:18:00,64.1,56.7,29.64,South,191,0.0,0.0,77,0.00,,,0.00,WUHU216DAVISVP2,2013-05-15 05:18:00,
2013-05-15 01:19:00,64.1,56.7,29.64,South,191,0.0,0.0,77,0.00,,,0.00,WUHU216DAVISVP2,2013-05-15 05:19:00,
2013-05-15 01:22:00,64.1,56.7,29.64,South,191,0.0,0.0,77,0.00,,,0.00,WUHU216DAVISVP2,2013-05-15 05:22:00,
2013-05-15 01:23:00,64.1,56.7,29.64,South,191,0.0,1.0,77,0.00,,,0.00,WUHU216DAVISVP2,2013-05-15 05:23:00,
2013-05-15 01:25:00,64.1,56.7,29.64,South,191,0.0,1.0,77,0.00,,,0.00,WUHU216DAVISVP2,2013-05-15 05:25:00,
2013-05-15 01:28:00,64.1,56.4,29.64,South,191,0.0,2.0,76,0.00,,,0.00,WUHU216DAVISVP2,2013-05-15 05:28:00,
2013-05-15 01:30:00,64.1,56.7,29.64,South,191,0.0,2.0,77,0.00,,,0.00,WUHU216DAVISVP2,2013-05-15 05:30:00,
2013-05-15 01:31:00,64.0,56.6,29.64,South,191,0.0,2.0,77,0.00,,,0.00,WUHU216DAVISVP2,2013-05-15 05:31:00,
2013-05-15 01:33:00,64.0,56.6,29.64,South,191,0.0,2.0,77,0.00,,,0.00,WUHU216DAVISVP2,2013-05-15 05:33:00,
2013-05-15 01:35:00,64.0,56.6,29.64,South,191,0.0,2.0,77,0.00,,,0.00,WUHU216DAVISVP2,2013-05-15 05:35:00,
2013-05-15 01:36:00,64.0,56.6,29.64,South,191,0.0,2.0,77,0.00,,,0.00,WUHU216DAVISVP2,2013-05-15 05:36:00,
2013-05-15 01:37:00,63.9,56.5,29.64,South,191,0.0,0.0,77,0.00,,,0.00,WUHU216DAVISVP2,2013-05-15 05:37:00,
2013-05-15 01:40:00,63.9,56.2,29.64,South,191,0.0,0.0,76,0.00,,,0.00,WUHU216DAVISVP2,2013-05-15 05:40:00,
2013-05-15 01:42:00,63.8,56.1,29.64,South,191,0.0,0.0,76,0.00,,,0.00,WUHU216DAVISVP2,2013-05-15 05:42:00,
2013-05-15 01:44:00,63.8,56.4,29.63,South,191,0.0,0.0,77,0.00,,,0.00,WUHU216DAVISVP2,2013-05-15 05:44:00,
2013-05-15 01:45:00,63.7,56.4,29.63,South,191,0.0,0.0,77,0.00,,,0.00,WUHU216DAVISVP2,2013-05-15 05:45:00,
2013-05-15 01:48:00,63.8,56.5,29.63,South,191,0.0,0.0,77,0.00,,,0.00,WUHU216DAVISVP2,2013-05-15 05:48:00,
2013-05-15 01:50:00,63.8,56.5,29.63,South,191,0.0,1.0,77,0.00,,,0.00,WUHU216DAVISVP2,2013-05-15 05:50:00,
2013-05-15 01:51:00,63.8,56.5,29.63,South,191,0.0,1.0,77,0.00,,,0.00,WUHU216DAVISVP2,2013-05-15 05:51:00,
2013-05-15 01:53:00,64.1,56.8,29.63,South,191,0.0,1.0,77,0.00,,,0.00,WUHU216DAVISVP2,2013-05-15 05:53:00,
2013-05-15 01:56:00,64.3,57.0,29.62,South,191,0.0,1.0,77,0.00,,,0.00,WUHU216DAVISVP2,2013-05-15 05:56:00,
2013-05-15 01:57:00,64.7,57.4,29.62,SW,216,0.0,3.0,77,0.00,,,0.00,WUHU216DAVISVP2,2013-05-15 05:57:00,
2013-05-15 01:59:00,65.0,57.7,29.62,SW,229,2.0,3.0,77,0.00,,,0.00,WUHU216DAVISVP2,2013-05-15 05:59:00,
2013-05-15 02:01:00,65.4,57.7,29.63,SW,221,1.0,5.0,76,0.00,,,0.00,WUHU216DAVISVP2,2013-05-15 06:01:00,
2013-05-15 02:04:00,66.1,58.1,29.63,SSW,202,0.0,5.0,75,0.00,,,0.00,WUHU216DAVISVP2,2013-05-15 06:04:00,
2013-05-15 02:05:00,66.3,58.3,29.63,SW,219,1.0,5.0,75,0.00,,,0.00,WUHU216DAVISVP2,2013-05-15 06:05:00,
2013-05-15 02:06:00,66.3,58.3,29.63,SW,219,1.0,5.0,75,0.00,,,0.00,WUHU216DAVISVP2,2013-05-15 06:06:00,
2013-05-15 02:08:00,66.8,58.4,29.63,SW,219,0.0,5.0,74,0.00,,,0.00,WUHU216DAVISVP2,2013-05-15 06:08:00,
2013-05-15 02:10:00,67.0,58.6,29.63,SW,219,0.0,5.0,74,0.00,,,0.00,WUHU216DAVISVP2,2013-05-15 06:10:00,
2013-05-15 02:12:00,67.2,58.6,29.63,SW,219,0.0,2.0,74,0.00,,,0.00,WUHU216DAVISVP2,2013-05-15 06:12:00,
2013-05-15 02:13:00,67.3,58.3,29.63,SW,219,0.0,2.0,73,0.00,,,0.00,WUHU216DAVISVP2,2013-05-15 06:13:00,
2013-05-15 02:15:00,67.4,58.4,29.63,SW,219,0.0,2.0,73,0.00,,,0.00,WUHU216DAVISVP2,2013-05-15 06:15:00,
2013-05-15 02:17:00,67.5,58.5,29.63,SW,219,0.0,1.0,73,0.00,,,0.00,WUHU216DAVISVP2,2013-05-15 06:17:00,
2013-05-15 02:18:00,67.6,58.6,29.63,SW,219,0.0,1.0,73,0.00,,,0.00,WUHU216DAVISVP2,2013-05-15 06:18:00,
2013-05-15 02:21:00,67.6,59.0,29.62,SW,219,0.0,1.0,74,0.00,,,0.00,WUHU216DAVISVP2,2013-05-15 06:21:00,
2013-05-15 02:22:00,67.6,59.0,29.62,SW,219,0.0,1.0,74,0.00,,,0.00,WUHU216DAVISVP2,2013-05-15 06:22:00,
2013-05-15 02:24:00,67.7,59.1,29.63,SW,219,0.0,1.0,74,0.00,,,0.00,WUHU216DAVISVP2,2013-05-15 06:24:00,
2013-05-15 02:27:00,67.7,58.7,29.62,SW,219,0.0,1.0,73,0.00,,,0.00,WUHU216DAVISVP2,2013-05-15 06:27:00,
2013-05-15 02:30:00,67.7,59.1,29.61,SW,218,0.0,1.0,74,0.00,,,0.00,WUHU216DAVISVP2,2013-05-15 06:30:00,
2013-05-15 02:32:00,67.8,59.2,29.61,SW,218,0.0,1.0,74,0.00,,,0.00,WUHU216DAVISVP2,2013-05-15 06:32:00,
2013-05-15 02:34:00,67.8,59.2,29.61,SW,218,0.0,1.0,74,0.00,,,0.00,WUHU216DAVISVP2,2013-05-15 06:34:00,
2013-05-15 02:35:00,67.8,59.2,29.62,SW,218,0.0,1.0,74,0.00,,,0.00,WUHU216DAVISVP2,2013-05-15 06:35:00,
2013-05-15 02:37:00,67.9,59.7,29.61,SW,218,0.0,2.0,75,0.00,,,0.00,WUHU216DAVISVP2,2013-05-15 06:37:00,
2013-05-15 02:38:00,67.9,59.7,29.61,SW,218,0.0,2.0,75,0.00,,,0.00,WUHU216DAVISVP2,2013-05-15 06:38:00,
2013-05-15 02:39:00,68.0,59.8,29.61,SSE,159,6.0,6.0,75,0.00,,,0.00,WUHU216DAVISVP2,2013-05-15 06:39:00,
2013-05-15 02:41:00,68.1,59.9,29.59,SSE,157,0.0,6.0,75,0.00,,,0.00,WUHU216DAVISVP2,2013-05-15 06:41:00,
2013-05-15 02:42:00,68.2,59.6,29.59,SSE,157,0.0,6.0,74,0.00,,,0.00,WUHU216DAVISVP2,2013-05-15 06:42:00,
2013-05-15 02:43:00,68.2,59.6,29.59,SSE,157,0.0,6.0,74,0.00,,,0.00,WUHU216DAVISVP2,2013-05-15 06:43:00,
2013-05-15 02:46:00,68.3,59.7,29.60,SSE,163,2.0,6.0,74,0.00,,,0.00,WUHU216DAVISVP2,2013-05-15 06:46:00,
2013-05-15 02:47:00,68.3,59.7,29.60,SSE,163,0.0,6.0,74,0.00,,,0.00,WUHU216DAVISVP2,2013-05-15 06:47:00,
2013-05-15 02:48:00,68.3,59.7,29.60,SSE,163,0.0,6.0,74,0.00,,,0.00,WUHU216DAVISVP2,2013-05-15 06:48:00,
2013-05-15 02:50:00,68.4,59.8,29.59,SSE,153,2.0,5.0,74,0.00,,,0.00,WUHU216DAVISVP2,2013-05-15 06:50:00,
2013-05-15 02:52:00,68.4,59.8,29.59,South,179,0.0,5.0,74,0.00,,,0.00,WUHU216DAVISVP2,2013-05-15 06:52:00,
2013-05-15 02:53:00,68.4,59.8,29.59,South,179,0.0,5.0,74,0.00,,,0.00,WUHU216DAVISVP2,2013-05-15 06:53:00,
2013-05-15 02:54:00,68.4,59.8,29.59,SSE,165,4.0,5.0,74,0.00,,,0.00,WUHU216DAVISVP2,2013-05-15 06:54:00,
2013-05-15 02:55:00,68.5,59.9,29.59,SSE,163,0.0,6.0,74,0.00,,,0.00,WUHU216DAVISVP2,2013-05-15 06:55:00,
2013-05-15 02:57:00,68.5,59.9,29.59,WSW,250,2.0,6.0,74,0.00,,,0.00,WUHU216DAVISVP2,2013-05-15 06:57:00,
2013-05-15 02:58:00,68.5,59.9,29.59,WSW,250,2.0,6.0,74,0.00,,,0.00,WUHU216DAVISVP2,2013-05-15 06:58:00,
2013-05-15 02:59:00,68.5,59.9,29.59,SSW,205,0.0,6.0,74,0.00,,,0.00,WUHU216DAVISVP2,2013-05-15 06:59:00,
2013-05-15 03:01:00,68.6,60.0,29.57,South,186,2.0,6.0,74,0.00,,,0.00,WUHU216DAVISVP2,2013-05-15 07:01:00,
2013-05-15 03:04:00,68.6,60.0,29.58,SE,146,0.0,6.0,74,0.00,,,0.00,WUHU216DAVISVP2,2013-05-15 07:04:00,
2013-05-15 03:05:00,68.6,60.0,29.57,SSE,150,6.0,10.0,74,0.00,,,0.00,WUHU216DAVISVP2,2013-05-15 07:05:00,
2013-05-15 03:06:00,68.7,60.1,29.58,WSW,252,0.0,10.0,74,0.00,,,0.00,WUHU216DAVISVP2,2013-05-15 07:06:00,
2013-05-15 03:08:00,68.8,60.2,29.58,SW,236,1.0,10.0,74,0.00,,,0.00,WUHU216DAVISVP2,2013-05-15 07:08:00,
2013-05-15 03:09:00,68.8,60.2,29.58,SW,236,1.0,10.0,74,0.00,,,0.00,WUHU216DAVISVP2,2013-05-15 07:09:00,
2013-05-15 03:10:00,68.9,60.6,29.59,SW,225,1.0,10.0,75,0.00,,,0.00,WUHU216DAVISVP2,2013-05-15 07:10:00,
2013-05-15 03:12:00,69.0,60.4,29.58,WSW,239,5.0,10.0,74,0.00,,,0.00,WUHU216DAVISVP2,2013-05-15 07:12:00,
2013-05-15 03:14:00,69.1,60.5,29.58,South,188,6.0,10.0,74,0.00,,,0.00,WUHU216DAVISVP2,2013-05-15 07:14:00,
2013-05-15 03:17:00,69.3,60.7,29.59,SW,228,3.0,9.0,74,0.00,,,0.00,WUHU216DAVISVP2,2013-05-15 07:17:00,
2013-05-15 03:18:00,69.4,60.4,29.58,South,175,5.0,9.0,73,0.00,,,0.00,WUHU216DAVISVP2,2013-05-15 07:18:00,
2013-05-15 03:19:00,69.4,60.4,29.58,South,175,5.0,9.0,73,0.00,,,0.00,WUHU216DAVISVP2,2013-05-15 07:19:00,
2013-05-15 03:21:00,69.5,60.5,29.58,WSW,249,3.0,9.0,73,0.00,,,0.00,WUHU216DAVISVP2,2013-05-15 07:21:00,
2013-05-15 03:24:00,69.5,60.5,29.58,WSW,250,2.0,9.0,73,0.00,,,0.00,WUHU216DAVISVP2,2013-05-15 07:24:00,
2013-05-15 03:25:00,69.5,60.5,29.57,WSW,247,5.0,6.0,73,0.00,,,0.00,WUHU216DAVISVP2,2013-05-15 07:25:00,
2013-05-15 03:26:00,69.6,60.6,29.58,West,267,4.0,6.0,73,0.00,,,0.00,WUHU216DAVISVP2,2013-05-15 07:26:00,
2013-05-15 03:28:00,69.6,60.6,29.57,WSW,238,7.0,7.0,73,0.00,,,0.00,WUHU216DAVISVP2,2013-05-15 07:28:00,
2013-05-15 03:30:00,69.6,60.6,29.57,WSW,238,7.0,7.0,73,0.00,,,0.00,WUHU216DAVISVP2,2013-05-15 07:30:00,
2013-05-15 03:33:00,69.9,60.8,29.56,SW,229,2.0,11.0,73,0.00,,,0.00,WUHU216DAVISVP2,2013-05-15 07:33:00,
2013-05-15 03:35:00,69.9,60.8,29.57,West,267,5.0,11.0,73,0.00,,,0.00,WUHU216DAVISVP2,2013-05-15 07:35:00,
2013-05-15 03:37:00,69.9,60.8,29.57,SW,236,2.0,11.0,73,0.00,,,0.00,WUHU216DAVISVP2,2013-05-15 07:37:00,
2013-05-15 03:38:00,69.9,60.5,29.57,WSW,250,5.0,12.0,72,0.00,,,0.00,WUHU216DAVISVP2,2013-05-15 07:38:00,
2013-05-15 03:40:00,70.0,60.6,29.57,West,277,5.0,12.0,72,0.00,,,0.00,WUHU216DAVISVP2,2013-05-15 07:40:00,
2013-05-15 03:42:00,70.0,60.6,29.57,SW,232,4.0,12.0,72,0.00,,,0.00,WUHU216DAVISVP2,2013-05-15 07:42:00,
2013-05-15 03:44:00,70.1,60.7,29.57,SW,217,5.0,12.0,72,0.00,,,0.00,WUHU216DAVISVP2,2013-05-15 07:44:00,
2013-05-15 03:46:00,70.1,60.7,29.57,SW,217,5.0,12.0,72,0.00,,,0.00,WUHU216DAVISVP2,2013-05-15 07:46:00,
2013-05-15 03:48:00,70.1,60.7,29.57,SSW,213,0.0,8.0,72,0.00,,,0.00,WUHU216DAVISVP2,2013-05-15 07:48:00,
2013-05-15 03:49:00,70.1,60.3,29.57,West,263,5.0,8.0,71,0.00,,,0.00,WUHU216DAVISVP2,2013-05-15 07:49:00,
2013-05-15 03:51:00,70.1,60.3,29.57,West,263,5.0,8.0,71,0.00,,,0.00,WUHU216DAVISVP2,2013-05-15 07:51:00,
2013-05-15 03:55:00,70.1,60.3,29.57,SSW,202,1.0,7.0,71,0.00,,,0.00,WUHU216DAVISVP2,2013-05-15 07:55:00,
2013-05-15 03:56:00,70.1,60.3,29.57,SSW,202,1.0,7.0,71,0.00,,,0.00,WUHU216DAVISVP2,2013-05-15 07:56:00,
2013-05-15 03:58:00,70.1,60.3,29.57,SW,222,4.0,8.0,71,0.00,,,0.00,WUHU216DAVISVP2,2013-05-15 07:58:00,
2013-05-15 04:01:00,70.1,60.3,29.56,WSW,240,2.0,8.0,71,0.00,,,0.00,WUHU216DAVISVP2,2013-05-15 08:01:00,
2013-05-15 04:04:00,70.1,60.3,29.56,WSW,244,1.0,8.0,71,0.00,,,0.00,WUHU216DAVISVP2,2013-05-15 08:04:00,
2013-05-15 04:06:00,70.1,60.3,29.56,SSW,198,1.0,8.0,71,0.00,,,0.00,WUHU216DAVISVP2,2013-05-15 08:06:00,
2013-05-15 04:09:00,70.0,60.2,29.56,WSW,257,5.0,8.0,71,0.00,,,0.00,WUHU216DAVISVP2,2013-05-15 08:09:00,
2013-05-15 04:11:00,70.1,60.3,29.56,SW,232,2.0,8.0,71,0.00,,,0.00,WUHU216DAVISVP2,2013-05-15 08:11:00,
2013-05-15 04:13:00,70.1,60.3,29.56,WSW,249,4.0,8.0,71,0.00,,,0.00,WUHU216DAVISVP2,2013-05-15 08:13:00,
2013-05-15 04:14:00,70.1,60.3,29.56,WSW,244,1.0,8.0,71,0.00,,,0.00,WUHU216DAVISVP2,2013-05-15 08:14:00,
2013-05-15 04:16:00,70.1,60.3,29.56,WSW,253,3.0,8.0,71,0.00,,,0.00,WUHU216DAVISVP2,2013-05-15 08:16:00,
2013-05-15 04:20:00,70.0,60.2,29.55,SW,236,2.0,8.0,71,0.00,,,0.00,WUHU216DAVISVP2,2013-05-15 08:20:00,
2013-05-15 04:22:00,70.0,60.2,29.55,SW,236,2.0,8.0,71,0.00,,,0.00,WUHU216DAVISVP2,2013-05-15 08:22:00,
2013-05-15 04:24:00,69.9,60.1,29.55,SW,221,3.0,7.0,71,0.00,,,0.00,WUHU216DAVISVP2,2013-05-15 08:24:00,
2013-05-15 04:26:00,69.9,60.1,29.55,SW,220,4.0,7.0,71,0.00,,,0.00,WUHU216DAVISVP2,2013-05-15 08:26:00,
2013-05-15 04:27:00,69.9,60.1,29.55,SW,220,0.0,7.0,71,0.00,,,0.00,WUHU216DAVISVP2,2013-05-15 08:27:00,
2013-05-15 04:30:00,69.8,60.0,29.55,SW,232,3.0,7.0,71,0.00,,,0.00,WUHU216DAVISVP2,2013-05-15 08:30:00,
2013-05-15 04:31:00,69.8,60.0,29.55,SSW,209,3.0,9.0,71,0.00,,,0.00,WUHU216DAVISVP2,2013-05-15 08:31:00,
2013-05-15 04:32:00,69.8,60.0,29.55,SSW,209,3.0,9.0,71,0.00,,,0.00,WUHU216DAVISVP2,2013-05-15 08:32:00,
2013-05-15 04:33:00,69.8,60.0,29.55,SW,227,1.0,9.0,71,0.00,,,0.00,WUHU216DAVISVP2,2013-05-15 08:33:00,
2013-05-15 04:36:00,69.8,60.0,29.55,West,259,2.0,9.0,71,0.00,,,0.00,WUHU216DAVISVP2,2013-05-15 08:36:00,
2013-05-15 04:37:00,69.8,60.0,29.55,West,259,2.0,9.0,71,0.00,,,0.00,WUHU216DAVISVP2,2013-05-15 08:37:00,
2013-05-15 04:41:00,69.7,60.3,29.55,WSW,253,4.0,7.0,72,0.00,,,0.00,WUHU216DAVISVP2,2013-05-15 08:41:00,
2013-05-15 04:42:00,69.7,60.3,29.55,WSW,253,4.0,7.0,72,0.00,,,0.00,WUHU216DAVISVP2,2013-05-15 08:42:00,
2013-05-15 04:43:00,69.7,60.3,29.55,WSW,238,6.0,9.0,72,0.00,,,0.00,WUHU216DAVISVP2,2013-05-15 08:43:00,
2013-05-15 04:45:00,69.7,60.3,29.54,South,169,0.0,9.0,72,0.00,,,0.00,WUHU216DAVISVP2,2013-05-15 08:45:00,
2013-05-15 04:47:00,69.7,60.3,29.54,South,190,5.0,12.0,72,0.00,,,0.00,WUHU216DAVISVP2,2013-05-15 08:47:00,
2013-05-15 04:48:00,69.6,60.2,29.54,WSW,246,0.0,12.0,72,0.00,,,0.00,WUHU216DAVISVP2,2013-05-15 08:48:00,
2013-05-15 04:50:00,69.6,60.2,29.55,WSW,252,2.0,12.0,72,0.00,,,0.00,WUHU216DAVISVP2,2013-05-15 08:50:00,
2013-05-15 04:52:00,69.6,60.2,29.55,WSW,252,1.0,12.0,72,0.00,,,0.00,WUHU216DAVISVP2,2013-05-15 08:52:00,
2013-05-15 04:55:00,69.5,60.2,29.55,WSW,248,0.0,12.0,72,0.00,,,0.00,WUHU216DAVISVP2,2013-05-15 08:55:00,
2013-05-15 04:57:00,69.5,60.2,29.54,WSW,251,3.0,10.0,72,0.00,,,0.00,WUHU216DAVISVP2,2013-05-15 08:57:00,
2013-05-15 04:58:00,69.5,60.2,29.54,WSW,251,3.0,10.0,72,0.00,,,0.00,WUHU216DAVISVP2,2013-05-15 08:58:00,
2013-05-15 05:00:00,69.5,60.2,29.55,SW,217,2.0,9.0,72,0.00,,,0.00,WUHU216DAVISVP2,2013-05-15 09:00:00,
2013-05-15 05:03:00,69.5,60.2,29.54,WSW,248,3.0,9.0,72,0.00,,,0.00,WUHU216DAVISVP2,2013-05-15 09:03:00,
2013-05-15 05:05:00,69.5,60.2,29.54,SW,219,1.0,9.0,72,0.00,,,0.00,WUHU216DAVISVP2,2013-05-15 09:05:00,
2013-05-15 05:06:00,69.5,60.2,29.54,WSW,254,3.0,8.0,72,0.00,,,0.00,WUHU216DAVISVP2,2013-05-15 09:06:00,
2013-05-15 05:08:00,69.5,60.2,29.54,WSW,254,3.0,8.0,72,0.00,,,0.00,WUHU216DAVISVP2,2013-05-15 09:08:00,
2013-05-15 05:11:00,69.5,60.2,29.54,West,267,5.0,8.0,72,0.00,,,0.00,WUHU216DAVISVP2,2013-05-15 09:11:00,
2013-05-15 05:13:00,69.4,60.1,29.54,West,261,6.0,8.0,72,0.00,,,0.00,WUHU216DAVISVP2,2013-05-15 09:13:00,
2013-05-15 05:14:00,69.4,60.1,29.54,SSW,207,0.0,8.0,72,0.00,,,0.00,WUHU216DAVISVP2,2013-05-15 09:14:00,
2013-05-15 05:16:00,69.4,60.1,29.54,WSW,239,0.0,8.0,72,0.00,,,0.00,WUHU216DAVISVP2,2013-05-15 09:16:00,
2013-05-15 05:18:00,69.4,60.1,29.54,SSW,201,7.0,8.0,72,0.00,,,0.00,WUHU216DAVISVP2,2013-05-15 09:18:00,
2013-05-15 05:20:00,69.4,59.8,29.54,West,261,7.0,8.0,71,0.00,,,0.00,WUHU216DAVISVP2,2013-05-15 09:20:00,
2013-05-15 05:23:00,69.4,59.8,29.54,South,186,2.0,7.0,71,0.00,,,0.00,WUHU216DAVISVP2,2013-05-15 09:23:00,
2013-05-15 05:26:00,69.4,59.8,29.54,SSW,202,4.0,8.0,71,0.00,,,0.00,WUHU216DAVISVP2,2013-05-15 09:26:00,
2013-05-15 05:27:00,69.4,59.8,29.54,WSW,246,0.0,8.0,71,0.00,,,0.00,WUHU216DAVISVP2,2013-05-15 09:27:00,
2013-05-15 05:28:00,69.4,59.8,29.54,WSW,246,0.0,8.0,71,0.00,,,0.00,WUHU216DAVISVP2,2013-05-15 09:28:00,
2013-05-15 05:29:00,69.4,59.8,29.54,WSW,248,1.0,8.0,71,0.00,,,0.00,WUHU216DAVISVP2,2013-05-15 09:29:00,
2013-05-15 05:31:00,69.3,59.7,29.54,SSW,213,2.0,8.0,71,0.00,,,0.00,WUHU216DAVISVP2,2013-05-15 09:31:00,
2013-05-15 05:33:00,69.3,59.7,29.54,WSW,240,0.0,8.0,71,0.00,,,0.00,WUHU216DAVISVP2,2013-05-15 09:33:00,
2013-05-15 05:34:00,69.3,59.7,29.54,WSW,240,0.0,8.0,71,0.00,,,0.00,WUHU216DAVISVP2,2013-05-15 09:34:00,
2013-05-15 05:36:00,69.2,59.6,29.54,SSW,208,1.0,7.0,71,0.00,,,0.00,WUHU216DAVISVP2,2013-05-15 09:36:00,
2013-05-15 05:39:00,69.2,59.6,29.54,WSW,238,0.0,7.0,71,0.00,,,0.00,WUHU216DAVISVP2,2013-05-15 09:39:00,
2013-05-15 05:41:00,69.1,59.5,29.54,WSW,240,2.0,7.0,71,0.00,,,0.00,WUHU216DAVISVP2,2013-05-15 09:41:00,
2013-05-15 05:42:00,69.1,59.5,29.54,West,259,3.0,7.0,71,0.00,,,0.00,WUHU216DAVISVP2,2013-05-15 09:42:00,
2013-05-15 05:44:00,69.0,59.4,29.54,SW,223,4.0,7.0,71,0.00,,,0.00,WUHU216DAVISVP2,2013-05-15 09:44:00,
2013-05-15 05:46:00,69.0,59.8,29.54,West,264,0.0,7.0,72,0.00,,,0.00,WUHU216DAVISVP2,2013-05-15 09:46:00,
2013-05-15 05:47:00,68.9,59.7,29.54,West,275,1.0,7.0,72,0.00,,,0.00,WUHU216DAVISVP2,2013-05-15 09:47:00,
2013-05-15 05:49:00,68.8,59.6,29.54,SW,235,0.0,7.0,72,0.00,,,0.00,WUHU216DAVISVP2,2013-05-15 09:49:00,
2013-05-15 05:52:00,68.7,59.5,29.54,West,261,3.0,8.0,72,0.00,,,0.00,WUHU216DAVISVP2,2013-05-15 09:52:00,
2013-05-15 05:54:00,68.7,59.5,29.54,WSW,252,0.0,8.0,72,0.00,,,0.00,WUHU216DAVISVP2,2013-05-15 09:54:00,
2013-05-15 05:59:00,68.6,59.4,29.54,WSW,252,0.0,8.0,72,0.00,,,0.00,WUHU216DAVISVP2,2013-05-15 09:59:00,
2013-05-15 06:01:00,68.5,59.3,29.54,SW,226,0.0,7.0,72,0.00,,,0.00,WUHU216DAVISVP2,2013-05-15 10:01:00,
2013-05-15 06:03:00,68.5,59.3,29.54,SW,232,1.0,7.0,72,0.00,,,0.00,WUHU216DAVISVP2,2013-05-15 10:03:00,
2013-05-15 06:05:00,68.5,59.3,29.54,WSW,240,2.0,7.0,72,0.00,,,0.00,WUHU216DAVISVP2,2013-05-15 10:05:00,
2013-05-15 06:06:00,68.4,59.2,29.54,West,272,1.0,7.0,72,0.00,,,0.00,WUHU216DAVISVP2,2013-05-15 10:06:00,
2013-05-15 06:07:00,68.4,59.2,29.54,SW,229,1.0,7.0,72,0.00,,,0.00,WUHU216DAVISVP2,2013-05-15 10:07:00,
2013-05-15 06:10:00,68.3,59.1,29.54,SSW,211,0.0,7.0,72,0.00,,,0.00,WUHU216DAVISVP2,2013-05-15 10:10:00,
2013-05-15 06:11:00,68.3,59.1,29.54,SSW,195,4.0,7.0,72,0.00,,,0.00,WUHU216DAVISVP2,2013-05-15 10:11:00,
2013-05-15 06:13:00,68.3,59.1,29.54,West,281,4.0,6.0,72,0.00,,,0.00,WUHU216DAVISVP2,2013-05-15 10:13:00,
2013-05-15 06:15:00,68.3,59.1,29.54,SW,227,3.0,6.0,72,0.00,,,0.00,WUHU216DAVISVP2,2013-05-15 10:15:00,
2013-05-15 06:16:00,68.2,59.0,29.54,SW,217,4.0,6.0,72,0.00,,,0.00,WUHU216DAVISVP2,2013-05-15 10:16:00,
2013-05-15 06:20:00,68.2,59.0,29.54,SSW,205,2.0,6.0,72,0.00,,,0.00,WUHU216DAVISVP2,2013-05-15 10:20:00,
2013-05-15 06:22:00,68.2,59.0,29.55,WSW,257,3.0,7.0,72,0.00,,,0.00,WUHU216DAVISVP2,2013-05-15 10:22:00,
2013-05-15 06:25:00,68.2,59.0,29.54,West,265,2.0,7.0,72,0.00,,,0.00,WUHU216DAVISVP2,2013-05-15 10:25:00,
2013-05-15 06:27:00,68.2,59.0,29.55,West,272,3.0,7.0,72,0.00,,,0.00,WUHU216DAVISVP2,2013-05-15 10:27:00,
2013-05-15 06:28:00,68.2,59.0,29.55,WSW,246,1.0,7.0,72,0.00,,,0.00,WUHU216DAVISVP2,2013-05-15 10:28:00,
2013-05-15 06:30:00,68.2,59.0,29.55,WSW,250,4.0,8.0,72,0.00,,,0.00,WUHU216DAVISVP2,2013-05-15 10:30:00,
2013-05-15 06:32:00,68.2,59.0,29.55,WSW,257,3.0,8.0,72,0.00,,,0.00,WUHU216DAVISVP2,2013-05-15 10:32:00,
2013-05-15 06:33:00,68.1,58.9,29.55,WSW,238,0.0,8.0,72,0.00,,,0.00,WUHU216DAVISVP2,2013-05-15 10:33:00,
2013-05-15 06:35:00,68.1,58.9,29.55,SW,218,0.0,8.0,72,0.00,,,0.00,WUHU216DAVISVP2,2013-05-15 10:35:00,
2013-05-15 06:37:00,68.1,58.9,29.55,SW,222,0.0,8.0,72,0.00,,,0.00,WUHU216DAVISVP2,2013-05-15 10:37:00,
2013-05-15 06:38:00,68.1,58.9,29.55,WSW,252,1.0,8.0,72,0.00,,,0.00,WUHU216DAVISVP2,2013-05-15 10:38:00,
2013-05-15 06:40:00,68.0,58.8,29.55,SW,227,4.0,7.0,72,0.00,,,0.00,WUHU216DAVISVP2,2013-05-15 10:40:00,
2013-05-15 06:42:00,68.1,58.9,29.55,WSW,250,1.0,7.0,72,0.00,,,0.00,WUHU216DAVISVP2,2013-05-15 10:42:00,
2013-05-15 06:45:00,68.1,58.9,29.55,WNW,289,4.0,7.0,72,0.00,,,0.00,WUHU216DAVISVP2,2013-05-15 10:45:00,
2013-05-15 06:46:00,68.1,58.9,29.55,WNW,289,4.0,7.0,72,0.00,,,0.00,WUHU216DAVISVP2,2013-05-15 10:46:00,
2013-05-15 06:49:00,68.1,58.5,29.55,West,275,4.0,7.0,71,0.00,,,0.00,WUHU216DAVISVP2,2013-05-15 10:49:00,
2013-05-15 06:51:00,68.1,58.5,29.55,WSW,248,1.0,7.0,71,0.00,,,0.00,WUHU216DAVISVP2,2013-05-15 10:51:00,
2013-05-15 06:53:00,68.2,58.6,29.55,WSW,257,2.0,9.0,71,0.00,,,0.00,WUHU216DAVISVP2,2013-05-15 10:53:00,
2013-05-15 06:55:00,68.2,58.6,29.55,WSW,241,0.0,9.0,71,0.00,,,0.00,WUHU216DAVISVP2,2013-05-15 10:55:00,
2013-05-15 06:56:00,68.2,58.6,29.55,WSW,241,0.0,9.0,71,0.00,,,0.00,WUHU216DAVISVP2,2013-05-15 10:56:00,
2013-05-15 06:59:00,68.3,58.5,29.55,WSW,240,1.0,9.0,71,0.00,,,0.00,WUHU216DAVISVP2,2013-05-15 10:59:00,
2013-05-15 07:00:00,68.3,58.5,29.55,SW,235,1.0,9.0,71,0.00,,,0.00,WUHU216DAVISVP2,2013-05-15 11:00:00,
2013-05-15 07:01:00,68.3,58.5,29.55,SW,235,1.0,9.0,71,0.00,,,0.00,WUHU216DAVISVP2,2013-05-15 11:01:00,
2013-05-15 07:02:00,68.3,58.5,29.55,WSW,243,0.0,9.0,71,0.00,,,0.00,WUHU216DAVISVP2,2013-05-15 11:02:00,
2013-05-15 07:04:00,68.4,58.6,29.55,SW,233,3.0,6.0,71,0.00,,,0.00,WUHU216DAVISVP2,2013-05-15 11:04:00,
2013-05-15 07:06:00,68.5,58.3,29.56,West,259,0.0,6.0,70,0.00,,,0.00,WUHU216DAVISVP2,2013-05-15 11:06:00,
2013-05-15 07:07:00,68.5,58.3,29.56,WSW,257,0.0,6.0,70,0.00,,,0.00,WUHU216DAVISVP2,2013-05-15 11:07:00,
2013-05-15 07:08:00,68.5,58.3,29.56,West,263,2.0,7.0,70,0.00,,,0.00,WUHU216DAVISVP2,2013-05-15 11:08:00,
2013-05-15 07:10:00,68.6,58.4,29.56,West,281,6.0,7.0,70,0.00,,,0.00,WUHU216DAVISVP2,2013-05-15 11:10:00,
2013-05-15 07:11:00,68.6,58.4,29.56,West,281,6.0,7.0,70,0.00,,,0.00,WUHU216DAVISVP2,2013-05-15 11:11:00,
2013-05-15 07:14:00,68.6,58.0,29.56,West,267,2.0,7.0,69,0.00,,,0.00,WUHU216DAVISVP2,2013-05-15 11:14:00,
2013-05-15 07:16:00,68.7,58.1,29.56,West,270,0.0,7.0,69,0.00,,,0.00,WUHU216DAVISVP2,2013-05-15 11:16:00,
2013-05-15 07:17:00,68.7,58.1,29.56,West,265,3.0,7.0,69,0.00,,,0.00,WUHU216DAVISVP2,2013-05-15 11:17:00,
2013-05-15 07:18:00,68.7,58.1,29.56,WSW,248,0.0,7.0,69,0.00,,,0.00,WUHU216DAVISVP2,2013-05-15 11:18:00,
2013-05-15 07:20:00,68.7,58.1,29.56,West,261,2.0,7.0,69,0.00,,,0.00,WUHU216DAVISVP2,2013-05-15 11:20:00,
2013-05-15 07:21:00,68.7,58.1,29.56,West,261,2.0,7.0,69,0.00,,,0.00,WUHU216DAVISVP2,2013-05-15 11:21:00,
2013-05-15 07:22:00,68.8,57.8,29.56,West,267,2.0,7.0,68,0.00,,,0.00,WUHU216DAVISVP2,2013-05-15 11:22:00,
2013-05-15 07:24:00,68.9,57.9,29.56,WSW,254,2.0,7.0,68,0.00,,,0.00,WUHU216DAVISVP2,2013-05-15 11:24:00,
2013-05-15 07:26:00,68.9,57.9,29.57,West,259,2.0,7.0,68,0.00,,,0.00,WUHU216DAVISVP2,2013-05-15 11:26:00,
2013-05-15 07:27:00,68.9,57.9,29.57,West,259,2.0,7.0,68,0.00,,,0.00,WUHU216DAVISVP2,2013-05-15 11:27:00,
2013-05-15 07:28:00,69.1,57.7,29.57,West,279,4.0,7.0,67,0.00,,,0.00,WUHU216DAVISVP2,2013-05-15 11:28:00,
2013-05-15 07:30:00,69.2,57.8,29.57,WSW,256,2.0,7.0,67,0.00,,,0.00,WUHU216DAVISVP2,2013-05-15 11:30:00,
2013-05-15 07:32:00,69.4,58.0,29.57,WNW,288,4.0,7.0,67,0.00,,,0.00,WUHU216DAVISVP2,2013-05-15 11:32:00,
2013-05-15 07:33:00,69.7,57.8,29.57,WNW,284,5.0,10.0,66,0.00,,,0.00,WUHU216DAVISVP2,2013-05-15 11:33:00,
2013-05-15 07:35:00,70.0,57.7,29.57,West,263,5.0,10.0,65,0.00,,,0.00,WUHU216DAVISVP2,2013-05-15 11:35:00,
2013-05-15 07:37:00,70.3,58.2,29.57,West,260,8.0,10.0,65,0.00,,,0.00,WUHU216DAVISVP2,2013-05-15 11:37:00,
2013-05-15 07:40:00,70.6,58.0,29.57,WSW,242,8.0,10.0,64,0.00,,,0.00,WUHU216DAVISVP2,2013-05-15 11:40:00,
2013-05-15 07:41:00,70.8,57.8,29.57,West,279,5.0,10.0,63,0.00,,,0.00,WUHU216DAVISVP2,2013-05-15 11:41:00,
2013-05-15 07:42:00,70.8,57.8,29.57,West,279,5.0,10.0,63,0.00,,,0.00,WUHU216DAVISVP2,2013-05-15 11:42:00,
2013-05-15 07:43:00,71.0,57.3,29.57,WNW,290,7.0,10.0,62,0.00,,,0.00,WUHU216DAVISVP2,2013-05-15 11:43:00,
2013-05-15 07:47:00,71.4,57.9,29.57,West,270,10.0,10.0,62,0.00,,,0.00,WUHU216DAVISVP2,2013-05-15 11:47:00,
2013-05-15 07:49:00,71.6,57.6,29.57,WNW,283,6.0,11.0,61,0.00,,,0.00,WUHU216DAVISVP2,2013-05-15 11:49:00,
2013-05-15 07:51:00,71.8,57.4,29.57,WNW,284,7.0,11.0,60,0.00,,,0.00,WUHU216DAVISVP2,2013-05-15 11:51:00,
2013-05-15 07:52:00,72.1,57.6,29.58,WNW,299,5.0,12.0,60,0.00,,,0.00,WUHU216DAVISVP2,2013-05-15 11:52:00,
2013-05-15 07:53:00,72.1,57.6,29.58,WNW,299,5.0,12.0,60,0.00,,,0.00,WUHU216DAVISVP2,2013-05-15 11:53:00,
2013-05-15 07:54:00,72.2,57.7,29.58,West,277,6.0,12.0,60,0.00,,,0.00,WUHU216DAVISVP2,2013-05-15 11:54:00,
2013-05-15 07:56:00,72.3,57.8,29.57,WNW,286,6.0,12.0,60,0.00,,,0.00,WUHU216DAVISVP2,2013-05-15 11:56:00,
2013-05-15 07:57:00,72.4,57.9,29.57,West,264,6.0,12.0,60,0.00,,,0.00,WUHU216DAVISVP2,2013-05-15 11:57:00,
2013-05-15 07:58:00,72.4,57.9,29.57,West,264,6.0,12.0,60,0.00,,,0.00,WUHU216DAVISVP2,2013-05-15 11:58:00,
2013-05-15 07:59:00,72.5,58.0,29.57,WNW,290,6.0,12.0,60,0.00,,,0.00,WUHU216DAVISVP2,2013-05-15 11:59:00,
2013-05-15 08:01:00,72.6,58.1,29.57,WNW,289,6.0,12.0,60,0.00,,,0.00,WUHU216DAVISVP2,2013-05-15 12:01:00,
2013-05-15 08:03:00,72.6,57.6,29.57,WNW,295,6.0,11.0,59,0.00,,,0.00,WUHU216DAVISVP2,2013-05-15 12:03:00,
2013-05-15 08:06:00,72.8,57.6,29.58,WNW,299,4.0,10.0,59,0.00,,,0.00,WUHU216DAVISVP2,2013-05-15 12:06:00,
2013-05-15 08:08:00,73.0,57.3,29.58,West,273,4.0,10.0,58,0.00,,,0.00,WUHU216DAVISVP2,2013-05-15 12:08:00,
2013-05-15 08:09:00,73.0,58.0,29.58,WNW,291,7.0,11.0,59,0.00,,,0.00,WUHU216DAVISVP2,2013-05-15 12:09:00,
2013-05-15 08:12:00,73.3,57.8,29.58,WNW,299,13.0,13.0,58,0.00,,,0.00,WUHU216DAVISVP2,2013-05-15 12:12:00,
2013-05-15 08:13:00,73.3,57.8,29.58,WNW,299,13.0,13.0,58,0.00,,,0.00,WUHU216DAVISVP2,2013-05-15 12:13:00,
2013-05-15 08:14:00,73.4,58.4,29.58,NW,304,9.0,14.0,59,0.00,,,0.00,WUHU216DAVISVP2,2013-05-15 12:14:00,
2013-05-15 08:15:00,73.5,58.0,29.58,West,277,5.0,14.0,58,0.00,,,0.00,WUHU216DAVISVP2,2013-05-15 12:15:00,
2013-05-15 08:17:00,73.7,58.7,29.58,West,281,8.0,14.0,59,0.00,,,0.00,WUHU216DAVISVP2,2013-05-15 12:17:00,
2013-05-15 08:19:00,73.7,58.7,29.58,West,281,8.0,14.0,59,0.00,,,0.00,WUHU216DAVISVP2,2013-05-15 12:19:00,
2013-05-15 08:22:00,74.0,57.8,29.58,NW,319,9.0,12.0,57,0.00,,,0.00,WUHU216DAVISVP2,2013-05-15 12:22:00,
2013-05-15 08:24:00,74.0,57.8,29.58,NW,319,9.0,12.0,57,0.00,,,0.00,WUHU216DAVISVP2,2013-05-15 12:24:00,
2013-05-15 08:26:00,74.2,58.2,29.58,WNW,288,4.0,13.0,57,0.00,,,0.00,WUHU216DAVISVP2,2013-05-15 12:26:00,
2013-05-15 08:27:00,74.4,58.4,29.58,West,275,11.0,13.0,57,0.00,,,0.00,WUHU216DAVISVP2,2013-05-15 12:27:00,
2013-05-15 08:29:00,74.4,58.4,29.58,West,275,11.0,13.0,57,0.00,,,0.00,WUHU216DAVISVP2,2013-05-15 12:29:00,
2013-05-15 08:31:00,74.4,57.8,29.58,WNW,286,11.0,16.0,56,0.00,,,0.00,WUHU216DAVISVP2,2013-05-15 12:31:00,
2013-05-15 08:33:00,74.4,58.4,29.58,WNW,284,9.0,16.0,57,0.00,,,0.00,WUHU216DAVISVP2,2013-05-15 12:33:00,
2013-05-15 08:34:00,74.4,58.4,29.58,WNW,284,9.0,16.0,57,0.00,,,0.00,WUHU216DAVISVP2,2013-05-15 12:34:00,
2013-05-15 08:35:00,74.5,57.9,29.58,WNW,287,7.0,16.0,56,0.00,,,0.00,WUHU216DAVISVP2,2013-05-15 12:35:00,
2013-05-15 08:38:00,74.7,58.5,29.58,WNW,284,6.0,16.0,57,0.00,,,0.00,WUHU216DAVISVP2,2013-05-15 12:38:00,
2013-05-15 08:39:00,74.7,58.5,29.58,WNW,284,6.0,16.0,57,0.00,,,0.00,WUHU216DAVISVP2,2013-05-15 12:39:00,
2013-05-15 08:40:00,74.7,58.0,29.58,WNW,302,8.0,16.0,56,0.00,,,0.00,WUHU216DAVISVP2,2013-05-15 12:40:00,
2013-05-15 08:41:00,74.8,58.1,29.58,WNW,290,8.0,14.0,56,0.00,,,0.00,WUHU216DAVISVP2,2013-05-15 12:41:00,
2013-05-15 08:43:00,74.9,58.3,29.58,West,261,4.0,14.0,56,0.00,,,0.00,WUHU216DAVISVP2,2013-05-15 12:43:00,
2013-05-15 08:45:00,75.1,59.0,29.58,WNW,294,8.0,14.0,57,0.00,,,0.00,WUHU216DAVISVP2,2013-05-15 12:45:00,
2013-05-15 08:46:00,75.3,58.7,29.58,WNW,296,7.0,14.0,56,0.00,,,0.00,WUHU216DAVISVP2,2013-05-15 12:46:00,
2013-05-15 08:48:00,75.4,58.6,29.58,West,260,9.0,14.0,56,0.00,,,0.00,WUHU216DAVISVP2,2013-05-15 12:48:00,
2013-05-15 08:50:00,75.5,58.9,29.58,WSW,248,7.0,14.0,56,0.00,,,0.00,WUHU216DAVISVP2,2013-05-15 12:50:00,
2013-05-15 08:52:00,75.5,58.4,29.59,NW,321,5.0,14.0,55,0.00,,,0.00,WUHU216DAVISVP2,2013-05-15 12:52:00,
2013-05-15 08:54:00,75.4,58.3,29.58,West,259,7.0,14.0,55,0.00,,,0.00,WUHU216DAVISVP2,2013-05-15 12:54:00,
2013-05-15 08:55:00,75.4,58.3,29.59,WNW,300,5.0,14.0,55,0.00,,,0.00,WUHU216DAVISVP2,2013-05-15 12:55:00,
2013-05-15 08:58:00,75.5,58.4,29.59,WNW,286,6.0,14.0,55,0.00,,,0.00,WUHU216DAVISVP2,2013-05-15 12:58:00,
2013-05-15 08:59:00,75.6,59.0,29.58,NW,325,6.0,14.0,56,0.00,,,0.00,WUHU216DAVISVP2,2013-05-15 12:59:00,
2013-05-15 09:00:00,75.6,59.0,29.58,NW,325,6.0,14.0,56,0.00,,,0.00,WUHU216DAVISVP2,2013-05-15 13:00:00,
2013-05-15 09:01:00,75.7,58.6,29.59,WNW,287,5.0,11.0,55,0.00,,,0.00,WUHU216DAVISVP2,2013-05-15 13:01:00,
2013-05-15 09:03:00,75.9,58.2,29.59,WNW,286,7.0,13.0,54,0.00,,,0.00,WUHU216DAVISVP2,2013-05-15 13:03:00,
2013-05-15 09:05:00,76.0,58.8,29.59,WNW,298,11.0,14.0,55,0.00,,,0.00,WUHU216DAVISVP2,2013-05-15 13:05:00,
2013-05-15 09:06:00,76.0,58.8,29.59,WNW,298,11.0,14.0,55,0.00,,,0.00,WUHU216DAVISVP2,2013-05-15 13:06:00,
2013-05-15 09:07:00,76.1,58.2,29.59,WNW,296,11.0,18.0,54,0.00,,,0.00,WUHU216DAVISVP2,2013-05-15 13:07:00,
2013-05-15 09:09:00,76.2,58.3,29.59,WNW,296,10.0,18.0,54,0.00,,,0.00,WUHU216DAVISVP2,2013-05-15 13:09:00,
2013-05-15 09:10:00,76.2,57.8,29.59,NW,318,9.0,19.0,53,0.00,,,0.00,WUHU216DAVISVP2,2013-05-15 13:10:00,
2013-05-15 09:11:00,76.2,57.8,29.59,NW,318,9.0,19.0,53,0.00,,,0.00,WUHU216DAVISVP2,2013-05-15 13:11:00,
2013-05-15 09:12:00,76.2,58.0,29.59,West,265,10.0,19.0,53,0.00,,,0.00,WUHU216DAVISVP2,2013-05-15 13:12:00,
2013-05-15 09:14:00,76.2,58.0,29.59,NW,307,9.0,19.0,53,0.00,,,0.00,WUHU216DAVISVP2,2013-05-15 13:14:00,
2013-05-15 09:15:00,76.3,58.0,29.59,WNW,303,12.0,19.0,53,0.00,,,0.00,WUHU216DAVISVP2,2013-05-15 13:15:00,
2013-05-15 09:16:00,76.3,58.0,29.59,WNW,303,12.0,19.0,53,0.00,,,0.00,WUHU216DAVISVP2,2013-05-15 13:16:00,
2013-05-15 09:18:00,76.3,57.5,29.59,WNW,297,9.0,19.0,52,0.00,,,0.00,WUHU216DAVISVP2,2013-05-15 13:18:00,
2013-05-15 09:20:00,76.2,58.0,29.59,WNW,293,14.0,16.0,53,0.00,,,0.00,WUHU216DAVISVP2,2013-05-15 13:20:00,
2013-05-15 09:21:00,76.2,58.0,29.59,WNW,293,14.0,16.0,53,0.00,,,0.00,WUHU216DAVISVP2,2013-05-15 13:21:00,
2013-05-15 09:22:00,76.2,58.0,29.59,West,273,12.0,16.0,53,0.00,,,0.00,WUHU216DAVISVP2,2013-05-15 13:22:00,
2013-05-15 09:24:00,76.2,57.3,29.59,WNW,298,11.0,18.0,52,0.00,,,0.00,WUHU216DAVISVP2,2013-05-15 13:24:00,
2013-05-15 09:26:00,76.3,57.5,29.59,West,266,5.0,18.0,52,0.00,,,0.00,WUHU216DAVISVP2,2013-05-15 13:26:00,
2013-05-15 09:29:00,76.4,57.6,29.59,NW,324,4.0,18.0,52,0.00,,,0.00,WUHU216DAVISVP2,2013-05-15 13:29:00,
2013-05-15 09:31:00,76.5,57.7,29.59,NW,323,9.0,18.0,52,0.00,,,0.00,WUHU216DAVISVP2,2013-05-15 13:31:00,
2013-05-15 09:32:00,76.5,57.7,29.59,NW,323,9.0,18.0,52,0.00,,,0.00,WUHU216DAVISVP2,2013-05-15 13:32:00,
2013-05-15 09:33:00,76.7,57.9,29.59,NNW,348,8.0,18.0,52,0.00,,,0.00,WUHU216DAVISVP2,2013-05-15 13:33:00,
2013-05-15 09:34:00,77.0,58.2,29.59,NW,311,7.0,16.0,52,0.00,,,0.00,WUHU216DAVISVP2,2013-05-15 13:34:00,
2013-05-15 09:37:00,77.2,57.8,29.58,West,276,12.0,15.0,51,0.00,,,0.00,WUHU216DAVISVP2,2013-05-15 13:37:00,
2013-05-15 09:39:00,77.1,56.5,29.59,NW,313,9.0,15.0,49,0.00,,,0.00,WUHU216DAVISVP2,2013-05-15 13:39:00,
2013-05-15 09:41:00,77.1,57.1,29.59,NW,306,6.0,15.0,50,0.00,,,0.00,WUHU216DAVISVP2,2013-05-15 13:41:00,
2013-05-15 09:43:00,77.1,57.0,29.59,WNW,294,7.0,15.0,50,0.00,,,0.00,WUHU216DAVISVP2,2013-05-15 13:43:00,
2013-05-15 09:45:00,77.1,56.5,29.59,WNW,296,7.0,15.0,49,0.00,,,0.00,WUHU216DAVISVP2,2013-05-15 13:45:00,
2013-05-15 09:48:00,77.1,56.5,29.59,WNW,302,8.0,15.0,49,0.00,,,0.00,WUHU216DAVISVP2,2013-05-15 13:48:00,
2013-05-15 09:50:00,77.0,56.5,29.59,WNW,288,10.0,20.0,49,0.00,,,0.00,WUHU216DAVISVP2,2013-05-15 13:50:00,
2013-05-15 09:52:00,77.0,57.0,29.59,WNW,302,5.0,20.0,50,0.00,,,0.00,WUHU216DAVISVP2,2013-05-15 13:52:00,
2013-05-15 09:54:00,77.3,56.7,29.60,NNW,329,15.0,20.0,49,0.00,,,0.00,WUHU216DAVISVP2,2013-05-15 13:54:00,
2013-05-15 09:59:00,77.4,56.7,29.60,WNW,295,8.0,15.0,49,0.00,,,0.00,WUHU216DAVISVP2,2013-05-15 13:59:00,
2013-05-15 10:03:00,77.6,56.4,29.60,NNW,333,7.0,16.0,48,0.00,,,0.00,WUHU216DAVISVP2,2013-05-15 14:03:00,
2013-05-15 10:04:00,77.6,56.4,29.60,NNW,333,7.0,16.0,48,0.00,,,0.00,WUHU216DAVISVP2,2013-05-15 14:04:00,
2013-05-15 10:07:00,77.8,56.0,29.60,WSW,254,8.0,16.0,47,0.00,,,0.00,WUHU216DAVISVP2,2013-05-15 14:07:00,
2013-05-15 10:08:00,77.9,54.8,29.60,NW,315,14.0,23.0,45,0.00,,,0.00,WUHU216DAVISVP2,2013-05-15 14:08:00,
2013-05-15 10:10:00,77.9,54.8,29.60,NW,315,14.0,23.0,45,0.00,,,0.00,WUHU216DAVISVP2,2013-05-15 14:10:00,
2013-05-15 10:11:00,77.8,54.1,29.60,NNW,327,8.0,23.0,44,0.00,,,0.00,WUHU216DAVISVP2,2013-05-15 14:11:00,
2013-05-15 10:13:00,77.7,53.4,29.60,WNW,297,14.0,23.0,43,0.00,,,0.00,WUHU216DAVISVP2,2013-05-15 14:13:00,
2013-05-15 10:15:00,77.5,53.2,29.60,NW,311,12.0,23.0,43,0.00,,,0.00,WUHU216DAVISVP2,2013-05-15 14:15:00,
2013-05-15 10:16:00,77.4,52.5,29.60,West,281,14.0,23.0,42,0.00,,,0.00,WUHU216DAVISVP2,2013-05-15 14:16:00,
2013-05-15 10:18:00,77.4,53.1,29.60,WNW,302,8.0,19.0,43,0.00,,,0.00,WUHU216DAVISVP2,2013-05-15 14:18:00,
2013-05-15 10:20:00,77.4,53.1,29.60,WNW,288,11.0,21.0,43,0.00,,,0.00,WUHU216DAVISVP2,2013-05-15 14:20:00,
2013-05-15 10:22:00,77.4,53.1,29.60,NW,308,7.0,21.0,43,0.00,,,0.00,WUHU216DAVISVP2,2013-05-15 14:22:00,
2013-05-15 10:25:00,77.4,53.1,29.61,NW,315,11.0,21.0,43,0.00,,,0.00,WUHU216DAVISVP2,2013-05-15 14:25:00,
2013-05-15 10:26:00,77.4,53.1,29.61,NW,315,11.0,21.0,43,0.00,,,0.00,WUHU216DAVISVP2,2013-05-15 14:26:00,
2013-05-15 10:28:00,77.5,53.9,29.60,WSW,237,7.0,21.0,44,0.00,,,0.00,WUHU216DAVISVP2,2013-05-15 14:28:00,
2013-05-15 10:29:00,77.6,53.9,29.61,WNW,288,6.0,16.0,44,0.00,,,0.00,WUHU216DAVISVP2,2013-05-15 14:29:00,
2013-05-15 10:31:00,77.6,53.9,29.61,WNW,288,6.0,16.0,44,0.00,,,0.00,WUHU216DAVISVP2,2013-05-15 14:31:00,
2013-05-15 10:36:00,77.8,52.1,29.60,NW,319,10.0,18.0,41,0.00,,,0.00,WUHU216DAVISVP2,2013-05-15 14:36:00,
2013-05-15 10:37:00,77.7,52.1,29.60,North,355,7.0,18.0,41,0.00,,,0.00,WUHU216DAVISVP2,2013-05-15 14:37:00,
2013-05-15 10:39:00,77.7,52.1,29.61,NW,315,12.0,18.0,41,0.00,,,0.00,WUHU216DAVISVP2,2013-05-15 14:39:00,
2013-05-15 10:41:00,77.8,52.8,29.60,North,355,8.0,16.0,42,0.00,,,0.00,WUHU216DAVISVP2,2013-05-15 14:41:00,
2013-05-15 10:44:00,77.9,52.3,29.60,WNW,290,10.0,16.0,41,0.00,,,0.00,WUHU216DAVISVP2,2013-05-15 14:44:00,
2013-05-15 10:45:00,78.0,52.4,29.60,West,268,6.0,16.0,41,0.00,,,0.00,WUHU216DAVISVP2,2013-05-15 14:45:00,
2013-05-15 10:47:00,78.0,52.4,29.60,West,268,6.0,16.0,41,0.00,,,0.00,WUHU216DAVISVP2,2013-05-15 14:47:00,
2013-05-15 10:49:00,78.0,53.0,29.61,WSW,250,8.0,21.0,42,0.00,,,0.00,WUHU216DAVISVP2,2013-05-15 14:49:00,
2013-05-15 10:50:00,77.8,52.9,29.60,NNW,330,7.0,21.0,42,0.00,,,0.00,WUHU216DAVISVP2,2013-05-15 14:50:00,
2013-05-15 10:52:00,77.8,52.9,29.60,NNW,330,7.0,21.0,42,0.00,,,0.00,WUHU216DAVISVP2,2013-05-15 14:52:00,
2013-05-15 10:55:00,77.8,53.5,29.61,NW,312,9.0,21.0,43,0.00,,,0.00,WUHU216DAVISVP2,2013-05-15 14:55:00,
2013-05-15 10:57:00,77.9,53.6,29.61,WNW,301,10.0,21.0,43,0.00,,,0.00,WUHU216DAVISVP2,2013-05-15 14:57:00,
2013-05-15 11:00:00,78.1,53.1,29.61,WNW,302,7.0,18.0,42,0.00,,,0.00,WUHU216DAVISVP2,2013-05-15 15:00:00,
2013-05-15 11:02:00,78.3,54.0,29.61,WNW,301,8.0,18.0,43,0.00,,,0.00,WUHU216DAVISVP2,2013-05-15 15:02:00,
2013-05-15 11:04:00,78.5,54.1,29.61,NNW,340,4.0,18.0,43,0.00,,,0.00,WUHU216DAVISVP2,2013-05-15 15:04:00,
2013-05-15 11:07:00,78.9,53.1,29.61,NW,307,7.0,15.0,41,0.00,,,0.00,WUHU216DAVISVP2,2013-05-15 15:07:00,
2013-05-15 11:09:00,79.0,52.5,29.61,West,281,12.0,15.0,40,0.00,,,0.00,WUHU216DAVISVP2,2013-05-15 15:09:00,
2013-05-15 11:12:00,79.0,51.8,29.61,NW,312,14.0,15.0,39,0.00,,,0.00,WUHU216DAVISVP2,2013-05-15 15:12:00,
2013-05-15 11:13:00,79.0,51.9,29.61,North,355,12.0,18.0,39,0.00,,,0.00,WUHU216DAVISVP2,2013-05-15 15:13:00,
2013-05-15 11:14:00,79.0,51.1,29.61,WNW,294,6.0,18.0,38,0.00,,,0.00,WUHU216DAVISVP2,2013-05-15 15:14:00,
2013-05-15 11:16:00,78.9,52.4,29.61,NW,304,8.0,18.0,40,0.00,,,0.00,WUHU216DAVISVP2,2013-05-15 15:16:00,
2013-05-15 11:18:00,78.9,52.4,29.61,WNW,288,12.0,18.0,40,0.00,,,0.00,WUHU216DAVISVP2,2013-05-15 15:18:00,
2013-05-15 11:21:00,78.4,52.1,29.61,West,277,11.0,18.0,40,0.00,,,0.00,WUHU216DAVISVP2,2013-05-15 15:21:00,
2013-05-15 11:23:00,78.4,51.4,29.61,NW,309,12.0,16.0,39,0.00,,,0.00,WUHU216DAVISVP2,2013-05-15 15:23:00,
2013-05-15 11:25:00,78.2,51.9,29.61,WNW,298,8.0,19.0,40,0.00,,,0.00,WUHU216DAVISVP2,2013-05-15 15:25:00,
2013-05-15 11:26:00,78.1,52.4,29.61,NW,304,13.0,19.0,41,0.00,,,0.00,WUHU216DAVISVP2,2013-05-15 15:26:00,
2013-05-15 11:28:00,78.0,51.6,29.62,NW,308,10.0,19.0,40,0.00,,,0.00,WUHU216DAVISVP2,2013-05-15 15:28:00,
2013-05-15 11:30:00,77.9,51.5,29.61,West,261,5.0,19.0,40,0.00,,,0.00,WUHU216DAVISVP2,2013-05-15 15:30:00,
2013-05-15 11:32:00,78.0,52.3,29.62,WNW,295,11.0,19.0,41,0.00,,,0.00,WUHU216DAVISVP2,2013-05-15 15:32:00,
2013-05-15 11:33:00,78.0,53.0,29.62,WNW,302,12.0,19.0,42,0.00,,,0.00,WUHU216DAVISVP2,2013-05-15 15:33:00,
2013-05-15 11:35:00,78.0,52.4,29.61,NNW,329,11.0,19.0,41,0.00,,,0.00,WUHU216DAVISVP2,2013-05-15 15:35:00,
2013-05-15 11:38:00,78.3,51.9,29.62,NW,322,10.0,19.0,40,0.00,,,0.00,WUHU216DAVISVP2,2013-05-15 15:38:00,
2013-05-15 11:39:00,78.3,51.9,29.62,NW,322,10.0,19.0,40,0.00,,,0.00,WUHU216DAVISVP2,2013-05-15 15:39:00,
2013-05-15 11:40:00,78.4,52.0,29.62,NW,306,6.0,19.0,40,0.00,,,0.00,WUHU216DAVISVP2,2013-05-15 15:40:00,
2013-05-15 11:42:00,78.6,52.9,29.62,NNW,346,10.0,19.0,41,0.00,,,0.00,WUHU216DAVISVP2,2013-05-15 15:42:00,
2013-05-15 11:43:00,78.7,52.3,29.62,NW,321,9.0,19.0,40,0.00,,,0.00,WUHU216DAVISVP2,2013-05-15 15:43:00,
2013-05-15 11:44:00,78.7,52.3,29.62,NW,321,9.0,19.0,40,0.00,,,0.00,WUHU216DAVISVP2,2013-05-15 15:44:00,
2013-05-15 11:47:00,78.6,51.5,29.62,WNW,302,6.0,19.0,39,0.00,,,0.00,WUHU216DAVISVP2,2013-05-15 15:47:00,
2013-05-15 11:50:00,78.5,52.1,29.61,NNW,329,7.0,15.0,40,0.00,,,0.00,WUHU216DAVISVP2,2013-05-15 15:50:00,
2013-05-15 11:51:00,78.6,52.3,29.62,NW,318,10.0,15.0,40,0.00,,,0.00,WUHU216DAVISVP2,2013-05-15 15:51:00,
2013-05-15 11:53:00,78.5,52.2,29.62,NW,306,10.0,15.0,40,0.00,,,0.00,WUHU216DAVISVP2,2013-05-15 15:53:00,
2013-05-15 11:55:00,78.4,52.1,29.62,WNW,290,8.0,18.0,40,0.00,,,0.00,WUHU216DAVISVP2,2013-05-15 15:55:00,
2013-05-15 11:57:00,78.4,52.7,29.62,WNW,288,12.0,18.0,41,0.00,,,0.00,WUHU216DAVISVP2,2013-05-15 15:57:00,
2013-05-15 11:59:00,78.6,52.9,29.62,WNW,282,12.0,18.0,41,0.00,,,0.00,WUHU216DAVISVP2,2013-05-15 15:59:00,
2013-05-15 12:00:00,78.6,52.9,29.62,WNW,282,12.0,18.0,41,0.00,,,0.00,WUHU216DAVISVP2,2013-05-15 16:00:00,
2013-05-15 12:02:00,79.0,51.8,29.62,North,355,9.0,18.0,39,0.00,,,0.00,WUHU216DAVISVP2,2013-05-15 16:02:00,
2013-05-15 12:04:00,79.2,52.0,29.62,WNW,302,15.0,15.0,39,0.00,,,0.00,WUHU216DAVISVP2,2013-05-15 16:04:00,
2013-05-15 12:05:00,79.3,52.8,29.63,NW,319,12.0,15.0,40,0.00,,,0.00,WUHU216DAVISVP2,2013-05-15 16:05:00,
2013-05-15 12:07:00,79.3,51.4,29.63,West,271,6.0,15.0,38,0.00,,,0.00,WUHU216DAVISVP2,2013-05-15 16:07:00,
2013-05-15 12:08:00,79.4,50.9,29.63,NW,315,6.0,19.0,37,0.00,,,0.00,WUHU216DAVISVP2,2013-05-15 16:08:00,
2013-05-15 12:10:00,79.4,50.1,29.63,WSW,251,10.0,19.0,36,0.00,,,0.00,WUHU216DAVISVP2,2013-05-15 16:10:00,
2013-05-15 12:11:00,79.4,50.1,29.63,WSW,251,10.0,19.0,36,0.00,,,0.00,WUHU216DAVISVP2,2013-05-15 16:11:00,
2013-05-15 12:12:00,79.4,50.9,29.63,WNW,289,12.0,19.0,37,0.00,,,0.00,WUHU216DAVISVP2,2013-05-15 16:12:00,
2013-05-15 12:13:00,79.4,50.9,29.63,WNW,291,6.0,19.0,37,0.00,,,0.00,WUHU216DAVISVP2,2013-05-15 16:13:00,
2013-05-15 12:15:00,79.5,50.9,29.63,NW,325,2.0,19.0,37,0.00,,,0.00,WUHU216DAVISVP2,2013-05-15 16:15:00,
2013-05-15 12:16:00,79.5,50.9,29.63,NW,325,2.0,19.0,37,0.00,,,0.00,WUHU216DAVISVP2,2013-05-15 16:16:00,
2013-05-15 12:17:00,79.7,52.5,29.63,WNW,285,5.0,19.0,39,0.00,,,0.00,WUHU216DAVISVP2,2013-05-15 16:17:00,
2013-05-15 12:19:00,79.9,51.2,29.64,West,271,7.0,18.0,37,0.00,,,0.00,WUHU216DAVISVP2,2013-05-15 16:19:00,
2013-05-15 12:20:00,80.0,51.3,29.64,NW,305,6.0,13.0,37,0.00,,,0.00,WUHU216DAVISVP2,2013-05-15 16:20:00,
2013-05-15 12:21:00,80.0,51.3,29.64,NW,305,6.0,13.0,37,0.00,,,0.00,WUHU216DAVISVP2,2013-05-15 16:21:00,
2013-05-15 12:26:00,80.0,50.6,29.64,NW,311,11.0,16.0,36,0.00,,,0.00,WUHU216DAVISVP2,2013-05-15 16:26:00,
2013-05-15 12:27:00,80.0,49.9,29.64,WNW,300,13.0,20.0,35,0.00,,,0.00,WUHU216DAVISVP2,2013-05-15 16:27:00,
2013-05-15 12:29:00,79.8,50.5,29.64,WNW,285,7.0,20.0,36,0.00,,,0.00,WUHU216DAVISVP2,2013-05-15 16:29:00,
2013-05-15 12:32:00,79.7,50.3,29.65,NNW,333,8.0,20.0,36,0.00,,,0.00,WUHU216DAVISVP2,2013-05-15 16:32:00,
2013-05-15 12:35:00,80.0,50.5,29.65,NW,320,9.0,20.0,36,0.00,,,0.00,WUHU216DAVISVP2,2013-05-15 16:35:00,
2013-05-15 12:36:00,80.1,49.8,29.65,WNW,300,14.0,20.0,35,0.00,,,0.00,WUHU216DAVISVP2,2013-05-15 16:36:00,
2013-05-15 12:37:00,80.1,49.8,29.65,WNW,300,14.0,20.0,35,0.00,,,0.00,WUHU216DAVISVP2,2013-05-15 16:37:00,
2013-05-15 12:38:00,80.0,49.8,29.65,NW,304,5.0,18.0,35,0.00,,,0.00,WUHU216DAVISVP2,2013-05-15 16:38:00,
2013-05-15 12:40:00,80.0,49.8,29.65,NW,319,7.0,18.0,35,0.00,,,0.00,WUHU216DAVISVP2,2013-05-15 16:40:00,
2013-05-15 12:41:00,80.1,51.4,29.65,NW,323,7.0,18.0,37,0.00,,,0.00,WUHU216DAVISVP2,2013-05-15 16:41:00,
2013-05-15 12:42:00,80.1,51.4,29.65,NW,323,7.0,18.0,37,0.00,,,0.00,WUHU216DAVISVP2,2013-05-15 16:42:00,
2013-05-15 12:43:00,80.1,51.4,29.65,WNW,296,13.0,18.0,37,0.00,,,0.00,WUHU216DAVISVP2,2013-05-15 16:43:00,
2013-05-15 12:46:00,80.2,49.9,29.65,NW,309,15.0,18.0,35,0.00,,,0.00,WUHU216DAVISVP2,2013-05-15 16:46:00,
2013-05-15 12:47:00,80.0,50.5,29.65,WNW,301,11.0,18.0,36,0.00,,,0.00,WUHU216DAVISVP2,2013-05-15 16:47:00,
2013-05-15 12:49:00,80.0,50.5,29.65,WNW,294,10.0,18.0,36,0.00,,,0.00,WUHU216DAVISVP2,2013-05-15 16:49:00,
2013-05-15 12:51:00,79.9,50.4,29.65,WNW,303,14.0,19.0,36,0.00,,,0.00,WUHU216DAVISVP2,2013-05-15 16:51:00,
2013-05-15 12:52:00,79.9,49.7,29.65,NW,309,11.0,19.0,35,0.00,,,0.00,WUHU216DAVISVP2,2013-05-15 16:52:00,
2013-05-15 12:53:00,79.9,49.7,29.65,NW,309,11.0,19.0,35,0.00,,,0.00,WUHU216DAVISVP2,2013-05-15 16:53:00,
2013-05-15 12:54:00,80.0,49.8,29.65,NW,323,14.0,19.0,35,0.00,,,0.00,WUHU216DAVISVP2,2013-05-15 16:54:00,
2013-05-15 12:56:00,79.9,50.4,29.65,WNW,284,13.0,19.0,36,0.00,,,0.00,WUHU216DAVISVP2,2013-05-15 16:56:00,
2013-05-15 12:58:00,79.9,51.2,29.65,NW,313,5.0,19.0,37,0.00,,,0.00,WUHU216DAVISVP2,2013-05-15 16:58:00,
2013-05-15 12:59:00,80.1,50.6,29.65,WNW,299,9.0,19.0,36,0.00,,,0.00,WUHU216DAVISVP2,2013-05-15 16:59:00,
2013-05-15 13:01:00,80.3,50.1,29.65,North,355,10.0,18.0,35,0.00,,,0.00,WUHU216DAVISVP2,2013-05-15 17:01:00,
2013-05-15 13:03:00,80.3,51.5,29.66,WNW,292,16.0,18.0,37,0.00,,,0.00,WUHU216DAVISVP2,2013-05-15 17:03:00,
2013-05-15 13:04:00,80.3,50.8,29.66,NW,317,9.0,18.0,36,0.00,,,0.00,WUHU216DAVISVP2,2013-05-15 17:04:00,
2013-05-15 13:06:00,80.2,50.7,29.66,West,275,6.0,18.0,36,0.00,,,0.00,WUHU216DAVISVP2,2013-05-15 17:06:00,
2013-05-15 13:08:00,80.2,50.7,29.66,West,275,6.0,18.0,36,0.00,,,0.00,WUHU216DAVISVP2,2013-05-15 17:08:00,
2013-05-15 13:11:00,80.1,49.8,29.65,NW,306,6.0,19.0,35,0.00,,,0.00,WUHU216DAVISVP2,2013-05-15 17:11:00,
2013-05-15 13:12:00,80.2,49.9,29.66,WNW,301,7.0,19.0,35,0.00,,,0.00,WUHU216DAVISVP2,2013-05-15 17:12:00,
2013-05-15 13:13:00,80.2,49.9,29.66,WNW,301,7.0,19.0,35,0.00,,,0.00,WUHU216DAVISVP2,2013-05-15 17:13:00,
2013-05-15 13:14:00,80.3,50.8,29.65,NW,318,10.0,19.0,36,0.00,,,0.00,WUHU216DAVISVP2,2013-05-15 17:14:00,
2013-05-15 13:16:00,80.6,51.1,29.66,NW,316,8.0,19.0,36,0.00,,,0.00,WUHU216DAVISVP2,2013-05-15 17:16:00,
2013-05-15 13:18:00,80.6,51.1,29.66,WNW,298,7.0,19.0,36,0.00,,,0.00,WUHU216DAVISVP2,2013-05-15 17:18:00,
2013-05-15 13:19:00,80.8,52.0,29.66,West,273,5.0,18.0,37,0.00,,,0.00,WUHU216DAVISVP2,2013-05-15 17:19:00,
2013-05-15 13:21:00,81.0,50.6,29.66,WNW,292,7.0,18.0,35,0.00,,,0.00,WUHU216DAVISVP2,2013-05-15 17:21:00,
2013-05-15 13:23:00,81.2,50.8,29.66,WNW,292,9.0,18.0,35,0.00,,,0.00,WUHU216DAVISVP2,2013-05-15 17:23:00,
2013-05-15 13:24:00,81.2,50.0,29.66,NW,319,9.0,18.0,34,0.00,,,0.00,WUHU216DAVISVP2,2013-05-15 17:24:00,
2013-05-15 13:26:00,81.2,51.6,29.65,WNW,297,8.0,15.0,36,0.00,,,0.00,WUHU216DAVISVP2,2013-05-15 17:26:00,
2013-05-15 13:28:00,81.1,49.3,29.66,WNW,293,5.0,18.0,33,0.00,,,0.00,WUHU216DAVISVP2,2013-05-15 17:28:00,
2013-05-15 13:30:00,81.0,50.8,29.66,WNW,298,20.0,20.0,35,0.00,,,0.00,WUHU216DAVISVP2,2013-05-15 17:30:00,
2013-05-15 13:32:00,80.8,49.7,29.66,NNE,15,14.0,21.0,34,0.00,,,0.00,WUHU216DAVISVP2,2013-05-15 17:32:00,
2013-05-15 13:33:00,80.8,49.7,29.66,NNE,15,14.0,21.0,34,0.00,,,0.00,WUHU216DAVISVP2,2013-05-15 17:33:00,
2013-05-15 13:37:00,80.7,49.6,29.66,WNW,287,6.0,21.0,34,0.00,,,0.00,WUHU216DAVISVP2,2013-05-15 17:37:00,
2013-05-15 13:39:00,80.6,49.5,29.66,WNW,296,8.0,21.0,34,0.00,,,0.00,WUHU216DAVISVP2,2013-05-15 17:39:00,
2013-05-15 13:40:00,80.7,50.4,29.66,West,271,11.0,19.0,35,0.00,,,0.00,WUHU216DAVISVP2,2013-05-15 17:40:00,
2013-05-15 13:42:00,81.0,50.6,29.66,West,279,13.0,19.0,35,0.00,,,0.00,WUHU216DAVISVP2,2013-05-15 17:42:00,
2013-05-15 13:43:00,80.9,49.0,29.66,NW,317,10.0,19.0,33,0.00,,,0.00,WUHU216DAVISVP2,2013-05-15 17:43:00,
2013-05-15 13:44:00,80.9,49.0,29.66,NW,317,10.0,19.0,33,0.00,,,0.00,WUHU216DAVISVP2,2013-05-15 17:44:00,
2013-05-15 13:45:00,80.9,48.1,29.66,WNW,284,7.0,19.0,32,0.00,,,0.00,WUHU216DAVISVP2,2013-05-15 17:45:00,
2013-05-15 13:47:00,80.9,49.0,29.66,NNW,327,14.0,19.0,33,0.00,,,0.00,WUHU216DAVISVP2,2013-05-15 17:47:00,
2013-05-15 13:48:00,81.0,49.0,29.66,NNW,339,7.0,19.0,33,0.00,,,0.00,WUHU216DAVISVP2,2013-05-15 17:48:00,
2013-05-15 13:49:00,81.0,49.0,29.66,NNW,339,7.0,19.0,33,0.00,,,0.00,WUHU216DAVISVP2,2013-05-15 17:49:00,
2013-05-15 13:53:00,80.9,49.8,29.66,WNW,300,8.0,21.0,34,0.00,,,0.00,WUHU216DAVISVP2,2013-05-15 17:53:00,
2013-05-15 13:54:00,80.9,49.8,29.66,WNW,300,8.0,21.0,34,0.00,,,0.00,WUHU216DAVISVP2,2013-05-15 17:54:00,
2013-05-15 13:56:00,81.1,48.3,29.67,WNW,295,10.0,21.0,32,0.00,,,0.00,WUHU216DAVISVP2,2013-05-15 17:56:00,
2013-05-15 13:57:00,81.2,50.9,29.67,NW,308,13.0,21.0,35,0.00,,,0.00,WUHU216DAVISVP2,2013-05-15 17:57:00,
2013-05-15 13:59:00,81.4,49.5,29.67,WNW,297,12.0,21.0,33,0.00,,,0.00,WUHU216DAVISVP2,2013-05-15 17:59:00,
2013-05-15 14:01:00,81.4,49.5,29.66,WNW,285,7.0,21.0,33,0.00,,,0.00,WUHU216DAVISVP2,2013-05-15 18:01:00,
2013-05-15 14:03:00,81.3,49.3,29.67,WNW,298,11.0,21.0,33,0.00,,,0.00,WUHU216DAVISVP2,2013-05-15 18:03:00,
2013-05-15 14:04:00,81.2,48.4,29.66,West,281,14.0,21.0,32,0.00,,,0.00,WUHU216DAVISVP2,2013-05-15 18:04:00,
2013-05-15 14:06:00,81.1,48.3,29.66,West,260,4.0,21.0,32,0.00,,,0.00,WUHU216DAVISVP2,2013-05-15 18:06:00,
2013-05-15 14:08:00,81.2,50.0,29.66,WNW,301,9.0,21.0,34,0.00,,,0.00,WUHU216DAVISVP2,2013-05-15 18:08:00,
2013-05-15 14:10:00,81.2,50.0,29.66,WNW,301,9.0,21.0,34,0.00,,,0.00,WUHU216DAVISVP2,2013-05-15 18:10:00,
2013-05-15 14:12:00,81.1,49.1,29.66,NNW,335,12.0,18.0,33,0.00,,,0.00,WUHU216DAVISVP2,2013-05-15 18:12:00,
2013-05-15 14:13:00,81.1,49.1,29.67,NW,316,11.0,18.0,33,0.00,,,0.00,WUHU216DAVISVP2,2013-05-15 18:13:00,
2013-05-15 14:15:00,81.1,49.1,29.67,NW,316,11.0,18.0,33,0.00,,,0.00,WUHU216DAVISVP2,2013-05-15 18:15:00,
2013-05-15 14:17:00,81.2,49.2,29.66,WNW,301,7.0,18.0,33,0.00,,,0.00,WUHU216DAVISVP2,2013-05-15 18:17:00,
2013-05-15 14:20:00,81.2,49.2,29.66,WNW,295,2.0,18.0,33,0.00,,,0.00,WUHU216DAVISVP2,2013-05-15 18:20:00,
2013-05-15 14:22:00,81.4,48.7,29.66,NW,315,9.0,18.0,32,0.00,,,0.00,WUHU216DAVISVP2,2013-05-15 18:22:00,
2013-05-15 14:23:00,81.5,48.8,29.66,WNW,294,10.0,18.0,32,0.00,,,0.00,WUHU216DAVISVP2,2013-05-15 18:23:00,
2013-05-15 14:25:00,81.5,48.7,29.66,West,279,7.0,18.0,32,0.00,,,0.00,WUHU216DAVISVP2,2013-05-15 18:25:00,
2013-05-15 14:27:00,81.5,48.8,29.66,WNW,283,16.0,18.0,32,0.00,,,0.00,WUHU216DAVISVP2,2013-05-15 18:27:00,
2013-05-15 14:30:00,81.5,50.4,29.66,WNW,294,10.0,18.0,34,0.00,,,0.00,WUHU216DAVISVP2,2013-05-15 18:30:00,
2013-05-15 14:31:00,81.5,50.4,29.66,WNW,294,10.0,18.0,34,0.00,,,0.00,WUHU216DAVISVP2,2013-05-15 18:31:00,
2013-05-15 14:33:00,81.8,50.6,29.66,North,9,8.0,20.0,34,0.00,,,0.00,WUHU216DAVISVP2,2013-05-15 18:33:00,
2013-05-15 14:35:00,81.9,49.8,29.66,West,281,11.0,20.0,33,0.00,,,0.00,WUHU216DAVISVP2,2013-05-15 18:35:00,
2013-05-15 14:36:00,81.9,49.8,29.66,West,281,11.0,20.0,33,0.00,,,0.00,WUHU216DAVISVP2,2013-05-15 18:36:00,
2013-05-15 14:38:00,81.9,50.6,29.66,North,355,6.0,20.0,34,0.00,,,0.00,WUHU216DAVISVP2,2013-05-15 18:38:00,
2013-05-15 14:40:00,81.8,50.6,29.66,NW,305,10.0,20.0,34,0.00,,,0.00,WUHU216DAVISVP2,2013-05-15 18:40:00,
2013-05-15 14:41:00,81.8,50.6,29.66,NW,305,10.0,20.0,34,0.00,,,0.00,WUHU216DAVISVP2,2013-05-15 18:41:00,
2013-05-15 14:44:00,81.7,49.7,29.66,WNW,290,10.0,16.0,33,0.00,,,0.00,WUHU216DAVISVP2,2013-05-15 18:44:00,
2013-05-15 14:46:00,81.7,48.1,29.66,WNW,284,7.0,18.0,31,0.00,,,0.00,WUHU216DAVISVP2,2013-05-15 18:46:00,
2013-05-15 14:47:00,81.6,49.7,29.66,NNW,332,7.0,18.0,33,0.00,,,0.00,WUHU216DAVISVP2,2013-05-15 18:47:00,
2013-05-15 14:48:00,81.5,49.5,29.65,NW,305,7.0,18.0,33,0.00,,,0.00,WUHU216DAVISVP2,2013-05-15 18:48:00,
2013-05-15 14:51:00,81.6,50.4,29.65,West,270,12.0,18.0,34,0.00,,,0.00,WUHU216DAVISVP2,2013-05-15 18:51:00,
2013-05-15 14:52:00,81.6,50.4,29.65,West,270,12.0,18.0,34,0.00,,,0.00,WUHU216DAVISVP2,2013-05-15 18:52:00,
2013-05-15 14:53:00,81.5,50.3,29.65,WSW,252,6.0,18.0,34,0.00,,,0.00,WUHU216DAVISVP2,2013-05-15 18:53:00,
2013-05-15 14:54:00,81.7,50.5,29.65,NNW,327,7.0,18.0,34,0.00,,,0.00,WUHU216DAVISVP2,2013-05-15 18:54:00,
2013-05-15 14:57:00,82.0,49.2,29.65,NW,304,10.0,15.0,32,0.00,,,0.00,WUHU216DAVISVP2,2013-05-15 18:57:00,
2013-05-15 14:58:00,82.0,49.1,29.65,NW,325,6.0,15.0,32,0.00,,,0.00,WUHU216DAVISVP2,2013-05-15 18:58:00,
2013-05-15 15:00:00,81.9,48.2,29.65,NW,317,7.0,15.0,31,0.00,,,0.00,WUHU216DAVISVP2,2013-05-15 19:00:00,
2013-05-15 15:02:00,81.8,48.9,29.65,NW,316,9.0,15.0,32,0.00,,,0.00,WUHU216DAVISVP2,2013-05-15 19:02:00,
2013-05-15 15:04:00,81.7,49.7,29.65,WNW,302,10.0,15.0,33,0.00,,,0.00,WUHU216DAVISVP2,2013-05-15 19:04:00,
2013-05-15 15:05:00,81.7,48.8,29.65,NW,305,8.0,15.0,32,0.00,,,0.00,WUHU216DAVISVP2,2013-05-15 19:05:00,
2013-05-15 15:07:00,81.5,51.1,29.65,WNW,282,10.0,14.0,35,0.00,,,0.00,WUHU216DAVISVP2,2013-05-15 19:07:00,
2013-05-15 15:09:00,81.5,49.5,29.65,NW,314,8.0,14.0,33,0.00,,,0.00,WUHU216DAVISVP2,2013-05-15 19:09:00,
2013-05-15 15:10:00,81.6,48.9,29.65,NNW,338,11.0,14.0,32,0.00,,,0.00,WUHU216DAVISVP2,2013-05-15 19:10:00,
2013-05-15 15:13:00,81.6,47.9,29.65,WNW,300,8.0,14.0,31,0.00,,,0.00,WUHU216DAVISVP2,2013-05-15 19:13:00,
2013-05-15 15:15:00,81.5,47.8,29.65,NW,308,8.0,14.0,31,0.00,,,0.00,WUHU216DAVISVP2,2013-05-15 19:15:00,
2013-05-15 15:17:00,81.7,48.8,29.65,NW,323,7.0,14.0,32,0.00,,,0.00,WUHU216DAVISVP2,2013-05-15 19:17:00,
2013-05-15 15:19:00,81.8,49.7,29.65,North,351,14.0,14.0,33,0.00,,,0.00,WUHU216DAVISVP2,2013-05-15 19:19:00,
2013-05-15 15:20:00,81.8,49.7,29.65,North,351,14.0,14.0,33,0.00,,,0.00,WUHU216DAVISVP2,2013-05-15 19:20:00,
2013-05-15 15:23:00,82.1,47.5,29.66,NNW,333,7.0,15.0,30,0.00,,,0.00,WUHU216DAVISVP2,2013-05-15 19:23:00,
2013-05-15 15:25:00,82.1,47.5,29.66,NNW,333,7.0,15.0,30,0.00,,,0.00,WUHU216DAVISVP2,2013-05-15 19:25:00,
2013-05-15 15:26:00,82.0,47.5,29.65,NW,304,13.0,18.0,30,0.00,,,0.00,WUHU216DAVISVP2,2013-05-15 19:26:00,
2013-05-15 15:29:00,82.2,47.5,29.66,NW,310,13.0,18.0,30,0.00,,,0.00,WUHU216DAVISVP2,2013-05-15 19:29:00,
2013-05-15 15:30:00,82.2,47.5,29.66,NW,310,13.0,18.0,30,0.00,,,0.00,WUHU216DAVISVP2,2013-05-15 19:30:00,
2013-05-15 15:31:00,82.2,47.5,29.66,WNW,299,5.0,18.0,30,0.00,,,0.00,WUHU216DAVISVP2,2013-05-15 19:31:00,
2013-05-15 15:32:00,82.4,46.8,29.66,NNW,336,9.0,18.0,29,0.00,,,0.00,WUHU216DAVISVP2,2013-05-15 19:32:00,
2013-05-15 15:34:00,82.4,48.6,29.66,NNW,328,8.0,18.0,31,0.00,,,0.00,WUHU216DAVISVP2,2013-05-15 19:34:00,
2013-05-15 15:35:00,82.4,48.6,29.66,NNW,328,8.0,18.0,31,0.00,,,0.00,WUHU216DAVISVP2,2013-05-15 19:35:00,
2013-05-15 15:36:00,82.5,46.9,29.66,NW,323,5.0,18.0,29,0.00,,,0.00,WUHU216DAVISVP2,2013-05-15 19:36:00,
2013-05-15 15:38:00,82.4,46.8,29.65,NNW,338,10.0,16.0,29,0.00,,,0.00,WUHU216DAVISVP2,2013-05-15 19:38:00,
2013-05-15 15:41:00,82.5,46.9,29.65,WNW,292,6.0,16.0,29,0.00,,,0.00,WUHU216DAVISVP2,2013-05-15 19:41:00,
2013-05-15 15:42:00,82.5,48.8,29.65,West,277,10.0,16.0,31,0.00,,,0.00,WUHU216DAVISVP2,2013-05-15 19:42:00,
2013-05-15 15:44:00,82.4,48.6,29.65,NW,309,5.0,16.0,31,0.00,,,0.00,WUHU216DAVISVP2,2013-05-15 19:44:00,
2013-05-15 15:46:00,82.4,48.6,29.65,West,266,5.0,15.0,31,0.00,,,0.00,WUHU216DAVISVP2,2013-05-15 19:46:00,
2013-05-15 15:48:00,82.5,50.4,29.65,NW,319,7.0,15.0,33,0.00,,,0.00,WUHU216DAVISVP2,2013-05-15 19:48:00,
2013-05-15 15:50:00,82.7,48.0,29.66,WNW,293,10.0,14.0,30,0.00,,,0.00,WUHU216DAVISVP2,2013-05-15 19:50:00,
2013-05-15 15:51:00,82.7,48.0,29.66,WNW,288,6.0,15.0,30,0.00,,,0.00,WUHU216DAVISVP2,2013-05-15 19:51:00,
2013-05-15 15:53:00,82.7,48.0,29.65,West,275,7.0,15.0,30,0.00,,,0.00,WUHU216DAVISVP2,2013-05-15 19:53:00,
2013-05-15 15:55:00,82.7,49.0,29.65,WNW,301,8.0,15.0,31,0.00,,,0.00,WUHU216DAVISVP2,2013-05-15 19:55:00,
2013-05-15 15:56:00,82.6,50.4,29.65,West,269,6.0,15.0,33,0.00,,,0.00,WUHU216DAVISVP2,2013-05-15 19:56:00,
2013-05-15 15:58:00,82.7,49.7,29.66,WNW,302,11.0,15.0,32,0.00,,,0.00,WUHU216DAVISVP2,2013-05-15 19:58:00,
2013-05-15 16:01:00,82.3,48.5,29.65,WNW,297,10.0,13.0,31,0.00,,,0.00,WUHU216DAVISVP2,2013-05-15 20:01:00,
2013-05-15 16:02:00,82.3,48.5,29.65,WNW,297,10.0,13.0,31,0.00,,,0.00,WUHU216DAVISVP2,2013-05-15 20:02:00,
2013-05-15 16:03:00,82.3,50.2,29.66,WNW,299,9.0,13.0,33,0.00,,,0.00,WUHU216DAVISVP2,2013-05-15 20:03:00,
2013-05-15 16:05:00,82.3,48.5,29.66,WNW,292,9.0,15.0,31,0.00,,,0.00,WUHU216DAVISVP2,2013-05-15 20:05:00,
2013-05-15 16:07:00,82.3,49.3,29.66,WNW,290,4.0,15.0,32,0.00,,,0.00,WUHU216DAVISVP2,2013-05-15 20:07:00,
2013-05-15 16:08:00,82.3,49.5,29.66,NW,305,8.0,15.0,32,0.00,,,0.00,WUHU216DAVISVP2,2013-05-15 20:08:00,
2013-05-15 16:09:00,82.3,49.5,29.65,WNW,294,9.0,15.0,32,0.00,,,0.00,WUHU216DAVISVP2,2013-05-15 20:09:00,
2013-05-15 16:12:00,82.4,49.6,29.65,NW,304,2.0,15.0,32,0.00,,,0.00,WUHU216DAVISVP2,2013-05-15 20:12:00,
2013-05-15 16:13:00,82.5,49.5,29.66,NW,306,10.0,18.0,32,0.00,,,0.00,WUHU216DAVISVP2,2013-05-15 20:13:00,
2013-05-15 16:16:00,82.5,48.7,29.66,NW,314,7.0,18.0,31,0.00,,,0.00,WUHU216DAVISVP2,2013-05-15 20:16:00,
2013-05-15 16:17:00,82.5,48.7,29.66,NW,314,7.0,18.0,31,0.00,,,0.00,WUHU216DAVISVP2,2013-05-15 20:17:00,
2013-05-15 16:19:00,82.5,48.7,29.66,WNW,302,7.0,18.0,31,0.00,,,0.00,WUHU216DAVISVP2,2013-05-15 20:19:00,
2013-05-15 16:21:00,82.6,49.6,29.66,NW,320,7.0,18.0,32,0.00,,,0.00,WUHU216DAVISVP2,2013-05-15 20:21:00,
2013-05-15 16:22:00,82.5,49.5,29.66,West,280,7.0,18.0,32,0.00,,,0.00,WUHU216DAVISVP2,2013-05-15 20:22:00,
2013-05-15 16:23:00,82.5,50.5,29.66,WNW,286,9.0,16.0,33,0.00,,,0.00,WUHU216DAVISVP2,2013-05-15 20:23:00,
2013-05-15 16:25:00,82.4,49.4,29.66,WNW,301,10.0,16.0,32,0.00,,,0.00,WUHU216DAVISVP2,2013-05-15 20:25:00,
2013-05-15 16:28:00,82.3,48.5,29.66,NW,309,6.0,15.0,31,0.00,,,0.00,WUHU216DAVISVP2,2013-05-15 20:28:00,
2013-05-15 16:30:00,82.3,49.3,29.66,NW,315,8.0,15.0,32,0.00,,,0.00,WUHU216DAVISVP2,2013-05-15 20:30:00,
2013-05-15 16:31:00,82.3,49.3,29.66,WNW,282,7.0,15.0,32,0.00,,,0.00,WUHU216DAVISVP2,2013-05-15 20:31:00,
2013-05-15 16:33:00,82.3,49.3,29.66,WNW,282,7.0,15.0,32,0.00,,,0.00,WUHU216DAVISVP2,2013-05-15 20:33:00,
2013-05-15 16:35:00,82.2,48.6,29.66,WNW,283,7.0,18.0,31,0.00,,,0.00,WUHU216DAVISVP2,2013-05-15 20:35:00,
2013-05-15 16:37:00,82.1,48.5,29.66,WNW,288,12.0,18.0,31,0.00,,,0.00,WUHU216DAVISVP2,2013-05-15 20:37:00,
2013-05-15 16:38:00,82.1,48.5,29.66,WNW,288,12.0,18.0,31,0.00,,,0.00,WUHU216DAVISVP2,2013-05-15 20:38:00,
2013-05-15 16:39:00,81.8,48.9,29.66,NW,323,9.0,19.0,32,0.00,,,0.00,WUHU216DAVISVP2,2013-05-15 20:39:00,
2013-05-15 16:41:00,81.7,48.8,29.66,NW,313,7.0,19.0,32,0.00,,,0.00,WUHU216DAVISVP2,2013-05-15 20:41:00,
2013-05-15 16:43:00,81.7,47.1,29.66,NNW,331,14.0,21.0,30,0.00,,,0.00,WUHU216DAVISVP2,2013-05-15 20:43:00,
2013-05-15 16:46:00,81.7,47.1,29.66,WNW,292,11.0,21.0,30,0.00,,,0.00,WUHU216DAVISVP2,2013-05-15 20:46:00,
2013-05-15 16:47:00,81.7,47.2,29.66,NW,319,5.0,21.0,30,0.00,,,0.00,WUHU216DAVISVP2,2013-05-15 20:47:00,
2013-05-15 16:49:00,81.7,48.1,29.66,North,350,10.0,21.0,31,0.00,,,0.00,WUHU216DAVISVP2,2013-05-15 20:49:00,
2013-05-15 16:52:00,81.6,47.9,29.66,NW,307,4.0,21.0,31,0.00,,,0.00,WUHU216DAVISVP2,2013-05-15 20:52:00,
2013-05-15 16:54:00,81.5,48.7,29.66,North,355,5.0,14.0,32,0.00,,,0.00,WUHU216DAVISVP2,2013-05-15 20:54:00,
2013-05-15 16:55:00,81.5,48.7,29.66,NW,311,5.0,14.0,32,0.00,,,0.00,WUHU216DAVISVP2,2013-05-15 20:55:00,
2013-05-15 16:56:00,81.5,47.8,29.66,WNW,286,10.0,16.0,31,0.00,,,0.00,WUHU216DAVISVP2,2013-05-15 20:56:00,
2013-05-15 16:58:00,81.2,48.4,29.66,NW,319,7.0,16.0,32,0.00,,,0.00,WUHU216DAVISVP2,2013-05-15 20:58:00,
2013-05-15 17:00:00,81.1,48.4,29.66,NW,307,7.0,16.0,32,0.00,,,0.00,WUHU216DAVISVP2,2013-05-15 21:00:00,
2013-05-15 17:01:00,81.1,48.4,29.66,WNW,295,8.0,16.0,32,0.00,,,0.00,WUHU216DAVISVP2,2013-05-15 21:01:00,
2013-05-15 17:03:00,81.1,46.7,29.66,WNW,294,5.0,16.0,30,0.00,,,0.00,WUHU216DAVISVP2,2013-05-15 21:03:00,
2013-05-15 17:06:00,81.3,47.6,29.66,NNW,340,10.0,15.0,31,0.00,,,0.00,WUHU216DAVISVP2,2013-05-15 21:06:00,
2013-05-15 17:08:00,81.4,48.6,29.66,NNW,327,7.0,15.0,32,0.00,,,0.00,WUHU216DAVISVP2,2013-05-15 21:08:00,
2013-05-15 17:10:00,81.6,49.6,29.66,NNW,334,7.0,15.0,33,0.00,,,0.00,WUHU216DAVISVP2,2013-05-15 21:10:00,
2013-05-15 17:12:00,81.5,48.7,29.66,NW,309,4.0,15.0,32,0.00,,,0.00,WUHU216DAVISVP2,2013-05-15 21:12:00,
2013-05-15 17:13:00,81.4,49.4,29.66,WNW,303,7.0,13.0,33,0.00,,,0.00,WUHU216DAVISVP2,2013-05-15 21:13:00,
2013-05-15 17:15:00,81.2,49.2,29.66,West,277,7.0,16.0,33,0.00,,,0.00,WUHU216DAVISVP2,2013-05-15 21:15:00,
2013-05-15 17:16:00,81.2,49.2,29.66,West,277,7.0,16.0,33,0.00,,,0.00,WUHU216DAVISVP2,2013-05-15 21:16:00,
2013-05-15 17:17:00,81.1,49.3,29.66,WNW,293,12.0,16.0,33,0.00,,,0.00,WUHU216DAVISVP2,2013-05-15 21:17:00,
2013-05-15 17:19:00,81.0,49.0,29.67,WNW,296,6.0,16.0,33,0.00,,,0.00,WUHU216DAVISVP2,2013-05-15 21:19:00,
2013-05-15 17:20:00,81.0,49.0,29.67,NW,316,8.0,16.0,33,0.00,,,0.00,WUHU216DAVISVP2,2013-05-15 21:20:00,
2013-05-15 17:21:00,81.0,49.0,29.67,NW,316,8.0,16.0,33,0.00,,,0.00,WUHU216DAVISVP2,2013-05-15 21:21:00,
2013-05-15 17:22:00,81.2,49.2,29.66,NW,317,5.0,16.0,33,0.00,,,0.00,WUHU216DAVISVP2,2013-05-15 21:22:00,
2013-05-15 17:24:00,81.3,49.3,29.67,NW,311,9.0,16.0,33,0.00,,,0.00,WUHU216DAVISVP2,2013-05-15 21:24:00,
2013-05-15 17:26:00,81.4,48.6,29.67,WNW,296,5.0,15.0,32,0.00,,,0.00,WUHU216DAVISVP2,2013-05-15 21:26:00,
2013-05-15 17:28:00,81.3,48.6,29.66,NW,305,7.0,15.0,32,0.00,,,0.00,WUHU216DAVISVP2,2013-05-15 21:28:00,
2013-05-15 17:30:00,81.2,48.5,29.66,West,281,8.0,15.0,32,0.00,,,0.00,WUHU216DAVISVP2,2013-05-15 21:30:00,
2013-05-15 17:31:00,81.2,48.5,29.66,West,281,8.0,15.0,32,0.00,,,0.00,WUHU216DAVISVP2,2013-05-15 21:31:00,
2013-05-15 17:32:00,81.1,48.3,29.66,WNW,292,7.0,15.0,32,0.00,,,0.00,WUHU216DAVISVP2,2013-05-15 21:32:00,
2013-05-15 17:34:00,80.9,47.3,29.66,NW,322,7.0,16.0,31,0.00,,,0.00,WUHU216DAVISVP2,2013-05-15 21:34:00,
2013-05-15 17:35:00,80.7,46.2,29.66,NW,313,8.0,16.0,30,0.00,,,0.00,WUHU216DAVISVP2,2013-05-15 21:35:00,
2013-05-15 17:39:00,80.7,48.0,29.66,NW,309,8.0,16.0,32,0.00,,,0.00,WUHU216DAVISVP2,2013-05-15 21:39:00,
2013-05-15 17:41:00,80.6,46.2,29.66,West,281,15.0,16.0,30,0.00,,,0.00,WUHU216DAVISVP2,2013-05-15 21:41:00,
2013-05-15 17:42:00,80.5,46.9,29.67,WNW,298,7.0,20.0,31,0.00,,,0.00,WUHU216DAVISVP2,2013-05-15 21:42:00,
2013-05-15 17:45:00,80.4,47.0,29.67,WNW,287,11.0,20.0,31,0.00,,,0.00,WUHU216DAVISVP2,2013-05-15 21:45:00,
2013-05-15 17:46:00,80.4,47.0,29.67,WNW,287,11.0,20.0,31,0.00,,,0.00,WUHU216DAVISVP2,2013-05-15 21:46:00,
2013-05-15 17:47:00,80.4,46.8,29.67,NW,306,5.0,20.0,31,0.00,,,0.00,WUHU216DAVISVP2,2013-05-15 21:47:00,
2013-05-15 17:49:00,80.5,46.9,29.67,NW,304,11.0,20.0,31,0.00,,,0.00,WUHU216DAVISVP2,2013-05-15 21:49:00,
2013-05-15 17:51:00,80.7,48.0,29.67,West,279,5.0,14.0,32,0.00,,,0.00,WUHU216DAVISVP2,2013-05-15 21:51:00,
2013-05-15 17:52:00,80.7,48.0,29.67,NW,307,8.0,14.0,32,0.00,,,0.00,WUHU216DAVISVP2,2013-05-15 21:52:00,
2013-05-15 17:53:00,80.7,47.1,29.67,NNW,340,8.0,14.0,31,0.00,,,0.00,WUHU216DAVISVP2,2013-05-15 21:53:00,
2013-05-15 17:55:00,80.7,47.1,29.67,WNW,302,6.0,14.0,31,0.00,,,0.00,WUHU216DAVISVP2,2013-05-15 21:55:00,
2013-05-15 17:57:00,80.7,47.1,29.67,WNW,302,6.0,14.0,31,0.00,,,0.00,WUHU216DAVISVP2,2013-05-15 21:57:00,
2013-05-15 17:58:00,80.7,47.2,29.67,West,264,7.0,14.0,31,0.00,,,0.00,WUHU216DAVISVP2,2013-05-15 21:58:00,
2013-05-15 17:59:00,80.7,47.2,29.67,West,275,6.0,14.0,31,0.00,,,0.00,WUHU216DAVISVP2,2013-05-15 21:59:00,
2013-05-15 18:01:00,80.7,47.1,29.67,WNW,289,6.0,14.0,31,0.00,,,0.00,WUHU216DAVISVP2,2013-05-15 22:01:00,
2013-05-15 18:02:00,80.7,47.1,29.67,WNW,289,6.0,14.0,31,0.00,,,0.00,WUHU216DAVISVP2,2013-05-15 22:02:00,
2013-05-15 18:03:00,80.7,48.0,29.67,WNW,296,6.0,14.0,32,0.00,,,0.00,WUHU216DAVISVP2,2013-05-15 22:03:00,
2013-05-15 18:05:00,80.7,48.0,29.67,SW,216,7.0,13.0,32,0.00,,,0.00,WUHU216DAVISVP2,2013-05-15 22:05:00,
2013-05-15 18:06:00,80.6,48.7,29.67,West,281,7.0,13.0,33,0.00,,,0.00,WUHU216DAVISVP2,2013-05-15 22:06:00,
2013-05-15 18:08:00,80.6,48.7,29.67,West,281,7.0,13.0,33,0.00,,,0.00,WUHU216DAVISVP2,2013-05-15 22:08:00,
2013-05-15 18:13:00,80.3,47.6,29.67,NW,304,6.0,13.0,32,0.00,,,0.00,WUHU216DAVISVP2,2013-05-15 22:13:00,
2013-05-15 18:14:00,80.2,46.8,29.67,WNW,300,7.0,18.0,31,0.00,,,0.00,WUHU216DAVISVP2,2013-05-15 22:14:00,
2013-05-15 18:16:00,80.0,46.6,29.67,NNW,327,14.0,18.0,31,0.00,,,0.00,WUHU216DAVISVP2,2013-05-15 22:16:00,
2013-05-15 18:18:00,79.9,47.3,29.67,WNW,291,14.0,18.0,32,0.00,,,0.00,WUHU216DAVISVP2,2013-05-15 22:18:00,
2013-05-15 18:19:00,79.7,47.1,29.67,NW,304,7.0,18.0,32,0.00,,,0.00,WUHU216DAVISVP2,2013-05-15 22:19:00,
2013-05-15 18:21:00,79.6,47.8,29.67,WNW,302,13.0,18.0,33,0.00,,,0.00,WUHU216DAVISVP2,2013-05-15 22:21:00,
2013-05-15 18:23:00,79.4,47.0,29.68,NW,312,5.0,15.0,32,0.00,,,0.00,WUHU216DAVISVP2,2013-05-15 22:23:00,
2013-05-15 18:26:00,79.4,47.0,29.68,NNW,346,5.0,15.0,32,0.00,,,0.00,WUHU216DAVISVP2,2013-05-15 22:26:00,
2013-05-15 18:27:00,79.4,47.6,29.68,NNW,336,4.0,14.0,33,0.00,,,0.00,WUHU216DAVISVP2,2013-05-15 22:27:00,
2013-05-15 18:28:00,79.4,47.6,29.68,NNW,336,4.0,14.0,33,0.00,,,0.00,WUHU216DAVISVP2,2013-05-15 22:28:00,
2013-05-15 18:29:00,79.4,46.8,29.68,NW,306,4.0,14.0,32,0.00,,,0.00,WUHU216DAVISVP2,2013-05-15 22:29:00,
2013-05-15 18:31:00,79.4,47.6,29.67,NNW,347,6.0,14.0,33,0.00,,,0.00,WUHU216DAVISVP2,2013-05-15 22:31:00,
2013-05-15 18:33:00,79.2,47.5,29.67,WNW,296,5.0,12.0,33,0.00,,,0.00,WUHU216DAVISVP2,2013-05-15 22:33:00,
2013-05-15 18:35:00,79.1,48.2,29.67,NNW,332,4.0,12.0,34,0.00,,,0.00,WUHU216DAVISVP2,2013-05-15 22:35:00,
2013-05-15 18:38:00,79.0,47.3,29.68,WNW,300,6.0,12.0,33,0.00,,,0.00,WUHU216DAVISVP2,2013-05-15 22:38:00,
2013-05-15 18:40:00,78.8,47.1,29.67,NNW,327,9.0,12.0,33,0.00,,,0.00,WUHU216DAVISVP2,2013-05-15 22:40:00,
2013-05-15 18:43:00,78.7,48.7,29.68,NNW,328,6.0,12.0,35,0.00,,,0.00,WUHU216DAVISVP2,2013-05-15 22:43:00,
2013-05-15 18:45:00,78.6,46.9,29.67,WNW,294,8.0,12.0,33,0.00,,,0.00,WUHU216DAVISVP2,2013-05-15 22:45:00,
2013-05-15 18:46:00,78.5,47.8,29.67,WNW,299,11.0,12.0,34,0.00,,,0.00,WUHU216DAVISVP2,2013-05-15 22:46:00,
2013-05-15 18:49:00,78.5,47.0,29.68,NW,318,7.0,12.0,33,0.00,,,0.00,WUHU216DAVISVP2,2013-05-15 22:49:00,
2013-05-15 18:52:00,78.5,47.0,29.67,NNW,327,4.0,14.0,33,0.00,,,0.00,WUHU216DAVISVP2,2013-05-15 22:52:00,
2013-05-15 18:54:00,78.6,46.9,29.67,NW,304,7.0,14.0,33,0.00,,,0.00,WUHU216DAVISVP2,2013-05-15 22:54:00,
2013-05-15 18:55:00,78.6,46.1,29.67,West,272,9.0,14.0,32,0.00,,,0.00,WUHU216DAVISVP2,2013-05-15 22:55:00,
2013-05-15 18:57:00,78.6,47.7,29.67,NW,325,6.0,14.0,34,0.00,,,0.00,WUHU216DAVISVP2,2013-05-15 22:57:00,
2013-05-15 18:59:00,78.7,47.0,29.67,NW,325,5.0,14.0,33,0.00,,,0.00,WUHU216DAVISVP2,2013-05-15 22:59:00,
2013-05-15 19:00:00,78.8,47.9,29.67,West,278,5.0,14.0,34,0.00,,,0.00,WUHU216DAVISVP2,2013-05-15 23:00:00,
2013-05-15 19:02:00,78.9,48.1,29.67,WNW,289,10.0,13.0,34,0.00,,,0.00,WUHU216DAVISVP2,2013-05-15 23:02:00,
2013-05-15 19:04:00,78.7,47.2,29.67,WNW,298,5.0,13.0,33,0.00,,,0.00,WUHU216DAVISVP2,2013-05-15 23:04:00,
2013-05-15 19:05:00,78.7,47.0,29.67,West,273,7.0,13.0,33,0.00,,,0.00,WUHU216DAVISVP2,2013-05-15 23:05:00,
2013-05-15 19:07:00,78.7,47.8,29.67,North,355,11.0,13.0,34,0.00,,,0.00,WUHU216DAVISVP2,2013-05-15 23:07:00,
2013-05-15 19:09:00,78.7,47.8,29.67,NW,309,4.0,13.0,34,0.00,,,0.00,WUHU216DAVISVP2,2013-05-15 23:09:00,
2013-05-15 19:10:00,78.7,47.8,29.67,NW,309,4.0,13.0,34,0.00,,,0.00,WUHU216DAVISVP2,2013-05-15 23:10:00,
2013-05-15 19:13:00,78.7,47.8,29.67,NW,306,6.0,12.0,34,0.00,,,0.00,WUHU216DAVISVP2,2013-05-15 23:13:00,
2013-05-15 19:15:00,78.7,47.8,29.67,NW,306,6.0,12.0,34,0.00,,,0.00,WUHU216DAVISVP2,2013-05-15 23:15:00,
2013-05-15 19:18:00,78.7,48.7,29.68,NNW,342,7.0,10.0,35,0.00,,,0.00,WUHU216DAVISVP2,2013-05-15 23:18:00,
2013-05-15 19:20:00,78.7,48.7,29.68,North,5,3.0,10.0,35,0.00,,,0.00,WUHU216DAVISVP2,2013-05-15 23:20:00,
2013-05-15 19:22:00,78.5,48.4,29.68,WNW,300,9.0,13.0,35,0.00,,,0.00,WUHU216DAVISVP2,2013-05-15 23:22:00,
2013-05-15 19:25:00,78.3,48.2,29.68,WNW,292,4.0,13.0,35,0.00,,,0.00,WUHU216DAVISVP2,2013-05-15 23:25:00,
2013-05-15 19:30:00,78.1,48.2,29.67,NW,319,3.0,13.0,35,0.00,,,0.00,WUHU216DAVISVP2,2013-05-15 23:30:00,
2013-05-15 19:31:00,78.1,49.0,29.67,NW,315,2.0,10.0,36,0.00,,,0.00,WUHU216DAVISVP2,2013-05-15 23:31:00,
2013-05-15 19:34:00,78.1,48.1,29.67,WNW,291,4.0,10.0,35,0.00,,,0.00,WUHU216DAVISVP2,2013-05-15 23:34:00,
2013-05-15 19:35:00,78.1,48.1,29.67,WNW,291,4.0,10.0,35,0.00,,,0.00,WUHU216DAVISVP2,2013-05-15 23:35:00,
2013-05-15 19:36:00,78.0,48.7,29.67,WNW,296,5.0,10.0,36,0.00,,,0.00,WUHU216DAVISVP2,2013-05-15 23:36:00,
2013-05-15 19:38:00,77.9,47.9,29.68,NW,321,2.0,11.0,35,0.00,,,0.00,WUHU216DAVISVP2,2013-05-15 23:38:00,
2013-05-15 19:40:00,77.9,48.8,29.68,WNW,295,2.0,11.0,36,0.00,,,0.00,WUHU216DAVISVP2,2013-05-15 23:40:00,
2013-05-15 19:42:00,77.9,48.0,29.68,NW,314,6.0,11.0,35,0.00,,,0.00,WUHU216DAVISVP2,2013-05-15 23:42:00,
2013-05-15 19:44:00,77.8,48.7,29.68,WNW,292,2.0,11.0,36,0.00,,,0.00,WUHU216DAVISVP2,2013-05-15 23:44:00,
2013-05-15 19:46:00,77.8,49.4,29.68,WNW,291,5.0,11.0,37,0.00,,,0.00,WUHU216DAVISVP2,2013-05-15 23:46:00,
2013-05-15 19:47:00,77.6,49.1,29.68,WNW,287,3.0,9.0,37,0.00,,,0.00,WUHU216DAVISVP2,2013-05-15 23:47:00,
2013-05-15 19:51:00,77.5,49.0,29.68,WNW,293,4.0,9.0,37,0.00,,,0.00,WUHU216DAVISVP2,2013-05-15 23:51:00,
2013-05-15 19:52:00,77.3,48.9,29.68,WNW,294,6.0,9.0,37,0.00,,,0.00,WUHU216DAVISVP2,2013-05-15 23:52:00,
2013-05-15 19:56:00,77.1,48.7,29.68,WNW,282,3.0,9.0,37,0.00,,,0.00,WUHU216DAVISVP2,2013-05-15 23:56:00,
2013-05-15 19:57:00,76.9,49.4,29.68,WNW,282,6.0,9.0,38,0.00,,,0.00,WUHU216DAVISVP2,2013-05-15 23:57:00,
2013-05-15 20:01:00,76.6,48.4,29.68,WNW,300,6.0,10.0,37,0.00,,,0.00,WUHU216DAVISVP2,2013-05-16 00:01:00,
2013-05-15 20:03:00,76.4,48.8,29.68,WNW,285,1.0,10.0,38,0.00,,,0.00,WUHU216DAVISVP2,2013-05-16 00:03:00,
2013-05-15 20:05:00,76.2,48.6,29.68,WNW,296,5.0,10.0,38,0.00,,,0.00,WUHU216DAVISVP2,2013-05-16 00:05:00,
2013-05-15 20:06:00,76.2,48.6,29.68,WNW,296,5.0,10.0,38,0.00,,,0.00,WUHU216DAVISVP2,2013-05-16 00:06:00,
2013-05-15 20:08:00,75.9,48.5,29.68,WNW,300,1.0,10.0,38,0.00,,,0.00,WUHU216DAVISVP2,2013-05-16 00:08:00,
2013-05-15 20:11:00,75.9,48.3,29.68,West,276,3.0,8.0,38,0.00,,,0.00,WUHU216DAVISVP2,2013-05-16 00:11:00,
2013-05-15 20:13:00,75.7,48.2,29.68,West,267,2.0,6.0,38,0.00,,,0.00,WUHU216DAVISVP2,2013-05-16 00:13:00,
2013-05-15 20:15:00,75.6,48.1,29.68,WNW,286,4.0,8.0,38,0.00,,,0.00,WUHU216DAVISVP2,2013-05-16 00:15:00,
2013-05-15 20:16:00,75.6,48.1,29.68,WNW,286,4.0,8.0,38,0.00,,,0.00,WUHU216DAVISVP2,2013-05-16 00:16:00,
2013-05-15 20:19:00,75.2,48.5,29.68,West,281,3.0,8.0,39,0.00,,,0.00,WUHU216DAVISVP2,2013-05-16 00:19:00,
2013-05-15 20:21:00,75.0,48.4,29.68,WNW,286,0.0,8.0,39,0.00,,,0.00,WUHU216DAVISVP2,2013-05-16 00:21:00,
2013-05-15 20:24:00,74.7,48.0,29.68,WNW,286,3.0,8.0,39,0.00,,,0.00,WUHU216DAVISVP2,2013-05-16 00:24:00,
2013-05-15 20:26:00,74.6,47.9,29.68,WNW,286,0.0,6.0,39,0.00,,,0.00,WUHU216DAVISVP2,2013-05-16 00:26:00,
2013-05-15 20:27:00,74.6,47.9,29.68,WNW,286,0.0,6.0,39,0.00,,,0.00,WUHU216DAVISVP2,2013-05-16 00:27:00,
2013-05-15 20:29:00,74.3,48.3,29.69,West,281,2.0,6.0,40,0.00,,,0.00,WUHU216DAVISVP2,2013-05-16 00:29:00,
2013-05-15 20:31:00,74.2,48.3,29.69,West,281,0.0,6.0,40,0.00,,,0.00,WUHU216DAVISVP2,2013-05-16 00:31:00,
2013-05-15 20:32:00,74.2,48.3,29.69,West,281,0.0,6.0,40,0.00,,,0.00,WUHU216DAVISVP2,2013-05-16 00:32:00,
2013-05-15 20:36:00,73.8,48.5,29.69,West,281,1.0,5.0,41,0.00,,,0.00,WUHU216DAVISVP2,2013-05-16 00:36:00,
2013-05-15 20:38:00,73.8,48.5,29.69,West,281,1.0,5.0,41,0.00,,,0.00,WUHU216DAVISVP2,2013-05-16 00:38:00,
2013-05-15 20:41:00,73.6,48.4,29.69,West,281,0.0,4.0,41,0.00,,,0.00,WUHU216DAVISVP2,2013-05-16 00:41:00,
2013-05-15 20:42:00,73.5,48.3,29.69,West,281,1.0,4.0,41,0.00,,,0.00,WUHU216DAVISVP2,2013-05-16 00:42:00,
2013-05-15 20:44:00,73.5,48.3,29.69,West,281,1.0,4.0,41,0.00,,,0.00,WUHU216DAVISVP2,2013-05-16 00:44:00,
2013-05-15 20:45:00,73.3,48.8,29.69,WNW,282,0.0,4.0,42,0.00,,,0.00,WUHU216DAVISVP2,2013-05-16 00:45:00,
2013-05-15 20:46:00,73.2,48.7,29.69,WNW,282,4.0,6.0,42,0.00,,,0.00,WUHU216DAVISVP2,2013-05-16 00:46:00,
2013-05-15 20:49:00,73.1,48.6,29.69,WNW,282,4.0,6.0,42,0.00,,,0.00,WUHU216DAVISVP2,2013-05-16 00:49:00,
2013-05-15 20:51:00,72.9,48.4,29.70,WNW,282,4.0,6.0,42,0.00,,,0.00,WUHU216DAVISVP2,2013-05-16 00:51:00,
2013-05-15 20:52:00,72.9,48.4,29.69,WNW,282,1.0,6.0,42,0.00,,,0.00,WUHU216DAVISVP2,2013-05-16 00:52:00,
2013-05-15 20:54:00,72.9,48.4,29.69,WNW,282,1.0,6.0,42,0.00,,,0.00,WUHU216DAVISVP2,2013-05-16 00:54:00,
2013-05-15 20:55:00,72.7,48.9,29.69,WNW,282,4.0,6.0,43,0.00,,,0.00,WUHU216DAVISVP2,2013-05-16 00:55:00,
2013-05-15 20:58:00,72.5,48.7,29.69,West,267,4.0,5.0,43,0.00,,,0.00,WUHU216DAVISVP2,2013-05-16 00:58:00,
2013-05-15 20:59:00,72.5,48.7,29.69,West,267,4.0,5.0,43,0.00,,,0.00,WUHU216DAVISVP2,2013-05-16 00:59:00,
2013-05-15 21:00:00,72.4,48.6,29.69,West,267,0.0,5.0,43,0.00,,,0.00,WUHU216DAVISVP2,2013-05-16 01:00:00,
2013-05-15 21:03:00,72.3,48.5,29.70,West,267,1.0,5.0,43,0.00,,,0.00,WUHU216DAVISVP2,2013-05-16 01:03:00,
2013-05-15 21:04:00,72.3,48.5,29.70,West,267,1.0,5.0,43,0.00,,,0.00,WUHU216DAVISVP2,2013-05-16 01:04:00,
2013-05-15 21:08:00,72.0,48.9,29.70,WNW,282,3.0,4.0,44,0.00,,,0.00,WUHU216DAVISVP2,2013-05-16 01:08:00,
2013-05-15 21:09:00,72.0,48.9,29.70,WNW,282,3.0,4.0,44,0.00,,,0.00,WUHU216DAVISVP2,2013-05-16 01:09:00,
2013-05-15 21:10:00,72.0,48.2,29.70,WNW,292,4.0,4.0,43,0.00,,,0.00,WUHU216DAVISVP2,2013-05-16 01:10:00,
2013-05-15 21:12:00,71.9,48.1,29.70,WNW,292,2.0,4.0,43,0.00,,,0.00,WUHU216DAVISVP2,2013-05-16 01:12:00,
2013-05-15 21:13:00,71.9,48.1,29.70,WNW,292,4.0,5.0,43,0.00,,,0.00,WUHU216DAVISVP2,2013-05-16 01:13:00,
2013-05-15 21:14:00,71.9,48.1,29.70,WNW,292,4.0,5.0,43,0.00,,,0.00,WUHU216DAVISVP2,2013-05-16 01:14:00,
2013-05-15 21:16:00,71.8,48.7,29.70,WNW,292,2.0,5.0,44,0.00,,,0.00,WUHU216DAVISVP2,2013-05-16 01:16:00,
2013-05-15 21:18:00,71.7,48.6,29.70,WNW,289,2.0,6.0,44,0.00,,,0.00,WUHU216DAVISVP2,2013-05-16 01:18:00,
2013-05-15 21:20:00,71.7,48.6,29.70,WNW,289,2.0,6.0,44,0.00,,,0.00,WUHU216DAVISVP2,2013-05-16 01:20:00,
2013-05-15 21:22:00,71.6,47.9,29.70,WNW,294,2.0,6.0,43,0.00,,,0.00,WUHU216DAVISVP2,2013-05-16 01:22:00,
2013-05-15 21:23:00,71.6,48.5,29.70,WNW,294,1.0,6.0,44,0.00,,,0.00,WUHU216DAVISVP2,2013-05-16 01:23:00,
2013-05-15 21:25:00,71.6,48.5,29.70,WNW,294,1.0,6.0,44,0.00,,,0.00,WUHU216DAVISVP2,2013-05-16 01:25:00,
2013-05-15 21:27:00,71.4,48.3,29.70,WNW,294,1.0,5.0,44,0.00,,,0.00,WUHU216DAVISVP2,2013-05-16 01:27:00,
2013-05-15 21:30:00,71.3,48.2,29.70,WNW,294,1.0,5.0,44,0.00,,,0.00,WUHU216DAVISVP2,2013-05-16 01:30:00,
2013-05-15 21:32:00,71.2,48.1,29.71,WNW,294,0.0,4.0,44,0.00,,,0.00,WUHU216DAVISVP2,2013-05-16 01:32:00,
2013-05-15 21:35:00,71.1,48.7,29.70,WNW,294,0.0,4.0,45,0.00,,,0.00,WUHU216DAVISVP2,2013-05-16 01:35:00,
2013-05-15 21:38:00,71.0,48.6,29.70,WNW,294,1.0,3.0,45,0.00,,,0.00,WUHU216DAVISVP2,2013-05-16 01:38:00,
2013-05-15 21:40:00,71.0,48.6,29.70,WNW,294,1.0,3.0,45,0.00,,,0.00,WUHU216DAVISVP2,2013-05-16 01:40:00,
2013-05-15 21:42:00,70.9,48.5,29.70,WNW,294,1.0,3.0,45,0.00,,,0.00,WUHU216DAVISVP2,2013-05-16 01:42:00,
2013-05-15 21:43:00,70.8,48.4,29.70,WNW,294,1.0,2.0,45,0.00,,,0.00,WUHU216DAVISVP2,2013-05-16 01:43:00,
2013-05-15 21:45:00,70.8,48.4,29.71,WNW,294,2.0,2.0,45,0.00,,,0.00,WUHU216DAVISVP2,2013-05-16 01:45:00,
2013-05-15 21:46:00,70.8,48.4,29.71,WNW,294,2.0,2.0,45,0.00,,,0.00,WUHU216DAVISVP2,2013-05-16 01:46:00,
2013-05-15 21:47:00,70.7,48.3,29.70,WNW,294,1.0,2.0,45,0.00,,,0.00,WUHU216DAVISVP2,2013-05-16 01:47:00,
2013-05-15 21:50:00,70.6,48.2,29.70,WNW,294,2.0,3.0,45,0.00,,,0.00,WUHU216DAVISVP2,2013-05-16 01:50:00,
2013-05-15 21:51:00,70.6,48.2,29.70,WNW,294,2.0,3.0,45,0.00,,,0.00,WUHU216DAVISVP2,2013-05-16 01:51:00,
2013-05-15 21:53:00,70.6,48.2,29.70,WNW,294,0.0,3.0,45,0.00,,,0.00,WUHU216DAVISVP2,2013-05-16 01:53:00,
2013-05-15 21:56:00,70.6,48.2,29.70,WNW,294,2.0,4.0,45,0.00,,,0.00,WUHU216DAVISVP2,2013-05-16 01:56:00,
2013-05-15 22:00:00,70.6,48.8,29.70,NW,305,0.0,5.0,46,0.00,,,0.00,WUHU216DAVISVP2,2013-05-16 02:00:00,
2013-05-15 22:01:00,70.6,48.8,29.70,NW,305,0.0,5.0,46,0.00,,,0.00,WUHU216DAVISVP2,2013-05-16 02:01:00,
2013-05-15 22:02:00,70.6,48.8,29.70,NW,305,0.0,5.0,46,0.00,,,0.00,WUHU216DAVISVP2,2013-05-16 02:02:00,
2013-05-15 22:04:00,70.6,48.8,29.70,NW,305,1.0,5.0,46,0.00,,,0.00,WUHU216DAVISVP2,2013-05-16 02:04:00,
2013-05-15 22:05:00,70.5,48.7,29.70,NW,305,2.0,5.0,46,0.00,,,0.00,WUHU216DAVISVP2,2013-05-16 02:05:00,
2013-05-15 22:06:00,70.5,48.7,29.70,NW,305,2.0,5.0,46,0.00,,,0.00,WUHU216DAVISVP2,2013-05-16 02:06:00,
2013-05-15 22:08:00,70.4,48.6,29.71,NW,305,1.0,4.0,46,0.00,,,0.00,WUHU216DAVISVP2,2013-05-16 02:08:00,
2013-05-15 22:12:00,70.4,48.6,29.71,NW,305,1.0,4.0,46,0.00,,,0.00,WUHU216DAVISVP2,2013-05-16 02:12:00,
2013-05-15 22:14:00,70.4,48.6,29.71,NW,305,0.0,4.0,46,0.00,,,0.00,WUHU216DAVISVP2,2013-05-16 02:14:00,
2013-05-15 22:15:00,70.4,48.6,29.71,NW,305,2.0,4.0,46,0.00,,,0.00,WUHU216DAVISVP2,2013-05-16 02:15:00,
2013-05-15 22:17:00,70.4,48.6,29.71,NW,305,2.0,4.0,46,0.00,,,0.00,WUHU216DAVISVP2,2013-05-16 02:17:00,
2013-05-15 22:19:00,70.3,48.5,29.71,NW,319,1.0,5.0,46,0.00,,,0.00,WUHU216DAVISVP2,2013-05-16 02:19:00,
2013-05-15 22:21:00,70.3,48.5,29.71,NW,319,3.0,5.0,46,0.00,,,0.00,WUHU216DAVISVP2,2013-05-16 02:21:00,
2013-05-15 22:22:00,70.3,48.5,29.71,NW,319,3.0,5.0,46,0.00,,,0.00,WUHU216DAVISVP2,2013-05-16 02:22:00,
2013-05-15 22:23:00,70.3,48.5,29.71,NW,319,1.0,5.0,46,0.00,,,0.00,WUHU216DAVISVP2,2013-05-16 02:23:00,
2013-05-15 22:24:00,70.3,48.5,29.70,NW,319,1.0,5.0,46,0.00,,,0.00,WUHU216DAVISVP2,2013-05-16 02:24:00,
2013-05-15 22:26:00,70.2,48.4,29.70,NW,319,0.0,5.0,46,0.00,,,0.00,WUHU216DAVISVP2,2013-05-16 02:26:00,
2013-05-15 22:27:00,70.2,48.4,29.70,NW,319,0.0,5.0,46,0.00,,,0.00,WUHU216DAVISVP2,2013-05-16 02:27:00,
2013-05-15 22:28:00,70.2,48.4,29.70,NW,319,0.0,4.0,46,0.00,,,0.00,WUHU216DAVISVP2,2013-05-16 02:28:00,
2013-05-15 22:29:00,70.3,48.5,29.70,NW,319,0.0,4.0,46,0.00,,,0.00,WUHU216DAVISVP2,2013-05-16 02:29:00,
2013-05-15 22:31:00,70.2,48.4,29.70,NW,319,2.0,4.0,46,0.00,,,0.00,WUHU216DAVISVP2,2013-05-16 02:31:00,
2013-05-15 22:32:00,70.2,48.4,29.70,NW,319,2.0,4.0,46,0.00,,,0.00,WUHU216DAVISVP2,2013-05-16 02:32:00,
2013-05-15 22:36:00,70.1,48.9,29.70,NW,319,0.0,2.0,47,0.00,,,0.00,WUHU216DAVISVP2,2013-05-16 02:36:00,
2013-05-15 22:37:00,70.0,48.8,29.70,NW,319,0.0,2.0,47,0.00,,,0.00,WUHU216DAVISVP2,2013-05-16 02:37:00,
2013-05-15 22:38:00,70.0,48.8,29.70,NW,319,0.0,2.0,47,0.00,,,0.00,WUHU216DAVISVP2,2013-05-16 02:38:00,
2013-05-15 22:39:00,70.0,48.8,29.70,NW,319,0.0,2.0,47,0.00,,,0.00,WUHU216DAVISVP2,2013-05-16 02:39:00,
2013-05-15 22:42:00,69.9,48.8,29.71,NW,319,0.0,2.0,47,0.00,,,0.00,WUHU216DAVISVP2,2013-05-16 02:42:00,
2013-05-15 22:43:00,69.8,49.2,29.71,NW,319,0.0,2.0,48,0.00,,,0.00,WUHU216DAVISVP2,2013-05-16 02:43:00,
2013-05-15 22:44:00,69.8,48.7,29.71,NW,319,0.0,2.0,47,0.00,,,0.00,WUHU216DAVISVP2,2013-05-16 02:44:00,
2013-05-15 22:46:00,69.7,48.6,29.71,NW,319,0.0,2.0,47,0.00,,,0.00,WUHU216DAVISVP2,2013-05-16 02:46:00,
2013-05-15 22:48:00,69.6,49.1,29.71,NW,319,0.0,2.0,48,0.00,,,0.00,WUHU216DAVISVP2,2013-05-16 02:48:00,
2013-05-15 22:49:00,69.6,49.1,29.71,NW,319,0.0,2.0,48,0.00,,,0.00,WUHU216DAVISVP2,2013-05-16 02:49:00,
2013-05-15 22:51:00,69.4,49.4,29.71,NW,319,0.0,1.0,49,0.00,,,0.00,WUHU216DAVISVP2,2013-05-16 02:51:00,
2013-05-15 22:53:00,69.3,49.9,29.71,NW,319,0.0,1.0,50,0.00,,,0.00,WUHU216DAVISVP2,2013-05-16 02:53:00,
2013-05-15 22:54:00,69.3,49.9,29.71,NW,319,0.0,1.0,50,0.00,,,0.00,WUHU216DAVISVP2,2013-05-16 02:54:00,
2013-05-15 22:55:00,69.1,49.2,29.71,NW,319,0.0,1.0,49,0.00,,,0.00,WUHU216DAVISVP2,2013-05-16 02:55:00,
2013-05-15 22:56:00,69.0,49.6,29.71,NW,319,4.0,4.0,50,0.00,,,0.00,WUHU216DAVISVP2,2013-05-16 02:56:00,
2013-05-15 22:59:00,68.8,48.9,29.71,NW,319,2.0,4.0,49,0.00,,,0.00,WUHU216DAVISVP2,2013-05-16 02:59:00,
2013-05-15 23:02:00,68.8,48.9,29.70,NNW,336,5.0,5.0,49,0.00,,,0.00,WUHU216DAVISVP2,2013-05-16 03:02:00,
2013-05-15 23:04:00,68.8,48.9,29.70,NNW,342,2.0,5.0,49,0.00,,,0.00,WUHU216DAVISVP2,2013-05-16 03:04:00,
2013-05-15 23:05:00,68.8,48.9,29.70,NNW,342,2.0,5.0,49,0.00,,,0.00,WUHU216DAVISVP2,2013-05-16 03:05:00,
2013-05-15 23:08:00,68.8,48.9,29.70,NNW,342,3.0,5.0,49,0.00,,,0.00,WUHU216DAVISVP2,2013-05-16 03:08:00,
2013-05-15 23:09:00,68.8,48.9,29.70,NNW,342,0.0,5.0,49,0.00,,,0.00,WUHU216DAVISVP2,2013-05-16 03:09:00,
2013-05-15 23:10:00,68.8,48.9,29.70,NNW,342,0.0,5.0,49,0.00,,,0.00,WUHU216DAVISVP2,2013-05-16 03:10:00,
2013-05-15 23:11:00,68.7,48.8,29.70,NNW,342,2.0,5.0,49,0.00,,,0.00,WUHU216DAVISVP2,2013-05-16 03:11:00,
2013-05-15 23:13:00,68.6,48.7,29.70,NNW,342,1.0,5.0,49,0.00,,,0.00,WUHU216DAVISVP2,2013-05-16 03:13:00,
2013-05-15 23:15:00,68.6,48.1,29.70,NNW,342,2.0,6.0,48,0.00,,,0.00,WUHU216DAVISVP2,2013-05-16 03:15:00,
2013-05-15 23:16:00,68.6,48.1,29.71,NW,317,4.0,6.0,48,0.00,,,0.00,WUHU216DAVISVP2,2013-05-16 03:16:00,
2013-05-15 23:17:00,68.6,48.1,29.70,NW,325,2.0,6.0,48,0.00,,,0.00,WUHU216DAVISVP2,2013-05-16 03:17:00,
2013-05-15 23:19:00,68.5,48.0,29.70,NW,325,4.0,6.0,48,0.00,,,0.00,WUHU216DAVISVP2,2013-05-16 03:19:00,
2013-05-15 23:20:00,68.5,48.0,29.70,NW,325,4.0,6.0,48,0.00,,,0.00,WUHU216DAVISVP2,2013-05-16 03:20:00,
2013-05-15 23:22:00,68.4,47.9,29.70,NNW,327,3.0,6.0,48,0.00,,,0.00,WUHU216DAVISVP2,2013-05-16 03:22:00,
2013-05-15 23:24:00,68.3,47.8,29.71,NNW,329,4.0,6.0,48,0.00,,,0.00,WUHU216DAVISVP2,2013-05-16 03:24:00,
2013-05-15 23:25:00,68.1,47.1,29.70,NW,315,5.0,7.0,47,0.00,,,0.00,WUHU216DAVISVP2,2013-05-16 03:25:00,
2013-05-15 23:26:00,68.1,47.1,29.70,NW,315,5.0,7.0,47,0.00,,,0.00,WUHU216DAVISVP2,2013-05-16 03:26:00,
2013-05-15 23:27:00,68.1,47.1,29.70,NW,316,2.0,7.0,47,0.00,,,0.00,WUHU216DAVISVP2,2013-05-16 03:27:00,
2013-05-15 23:31:00,67.9,46.9,29.70,NNW,328,2.0,7.0,47,0.00,,,0.00,WUHU216DAVISVP2,2013-05-16 03:31:00,
2013-05-15 23:33:00,67.7,46.7,29.70,North,5,4.0,7.0,47,0.00,,,0.00,WUHU216DAVISVP2,2013-05-16 03:33:00,
2013-05-15 23:35:00,67.6,46.6,29.70,NNW,344,4.0,7.0,47,0.00,,,0.00,WUHU216DAVISVP2,2013-05-16 03:35:00,
2013-05-15 23:37:00,67.4,45.9,29.70,NW,311,1.0,7.0,46,0.00,,,0.00,WUHU216DAVISVP2,2013-05-16 03:37:00,
2013-05-15 23:38:00,67.3,46.4,29.70,NNW,334,2.0,6.0,47,0.00,,,0.00,WUHU216DAVISVP2,2013-05-16 03:38:00,
2013-05-15 23:42:00,67.1,46.2,29.70,NNW,330,1.0,6.0,47,0.00,,,0.00,WUHU216DAVISVP2,2013-05-16 03:42:00,
2013-05-15 23:45:00,66.9,45.4,29.70,NNW,346,1.0,7.0,46,0.00,,,0.00,WUHU216DAVISVP2,2013-05-16 03:45:00,
2013-05-15 23:47:00,66.8,45.3,29.71,NNW,340,4.0,7.0,46,0.00,,,0.00,WUHU216DAVISVP2,2013-05-16 03:47:00,
2013-05-15 23:49:00,66.7,45.3,29.70,NNW,342,3.0,7.0,46,0.00,,,0.00,WUHU216DAVISVP2,2013-05-16 03:49:00,
2013-05-15 23:51:00,66.8,45.3,29.70,NNW,348,0.0,7.0,46,0.00,,,0.00,WUHU216DAVISVP2,2013-05-16 03:51:00,
2013-05-15 23:52:00,66.7,44.7,29.70,NNW,337,1.0,7.0,45,0.00,,,0.00,WUHU216DAVISVP2,2013-05-16 03:52:00,
2013-05-15 23:53:00,66.7,44.7,29.70,NNW,337,1.0,7.0,45,0.00,,,0.00,WUHU216DAVISVP2,2013-05-16 03:53:00,
2013-05-15 23:56:00,66.7,44.7,29.70,NW,323,4.0,6.0,45,0.00,,,0.00,WUHU216DAVISVP2,2013-05-16 03:56:00,
2013-05-15 23:58:00,66.7,44.7,29.70,NNW,327,3.0,6.0,45,0.00,,,0.00,WUHU216DAVISVP2,2013-05-16 03:58:00,